     2              OBSERVATION DATA    GPS                 RINEX VERSION / TYPE
teqc 1997Sep10 19971030 21:22:00UTC                         PGM / RUN BY / DATE
                                                            COMMENT
Original Marker Name: 55480.0217                            COMMENT
Campaign Name: NGS Imperial Valley 1990                     COMMENT
4-Character Station Name: O217                              COMMENT
6-Character Antenna Code: TI4100                            COMMENT
Vertical Measurement Point: PAE                             COMMENT
Vertical Offset to Rinex Ref. Point: 0.0000                 COMMENT
Radial Measurement Point: RRP                               COMMENT
Radial Offset to Rinex Ref. Point: 0.0000                   COMMENT
Antenna Height from Field Measurement: 0.7410 m             COMMENT
Original XYZ: -2287941.9900 -4842399.0759 3413742.5780      COMMENT
New XYZ position is based on association with SCEC monument COMMENT
E1C8V3Z3+0011. Position of that monument is believed to be  COMMENT
valid to within 1 m horizontally; vertical accuracy         COMMENT
should be no worse than 3-times this value.                 COMMENT
                                                            COMMENT
Revised Rinex header created by UCSD GPS archive for        COMMENT
GSAC on 10-Apr-1999 (1999:100) 04:57:13 GMT                 COMMENT
For assistance contact dagnew@ucsd.edu or hjohnson@ucsd.edu COMMENT
                                                            COMMENT
OFFSET 217                                                  MARKER NAME
05 NATIONAL GEODETIC SURVEY                                 OBSERVER / AGENCY
89 TI 4100 1.9                                              REC # / TYPE / VERS
4078 TI 4100                                                ANT # / TYPE
 -2297658.0000 -4857842.0000  3423964.0000                  APPROX POSITION XYZ
        0.7410        0.0000        0.0000                  ANTENNA: DELTA H/E/N
     1     1     0                                          WAVELENGTH FACT L1/2
     4    P1    P2    L1    L2                              # / TYPES OF OBSERV
    15                                                      INTERVAL
  1990     2    24     8    49   59.000000                  TIME OF FIRST OBS
  1990     2    24    10    32   59.000000                  TIME OF LAST OBS
     0                                                      # OF SATELLITES
                                                            END OF HEADER
 90  2 24  8 49 59.0800000  0  4G 3G12G19G13
  20940383.532    20940385.066    23887344.802 9 -48518351.984 8
  20929132.689    20929138.443    51600017.810 9 -74836676.107 8
  21830885.350    21830889.693    13429420.114 9 -23548707.966 8
  20816754.191    20816755.722    75122445.320 9-125718500.213 7
 90  2 24  8 50 14.0800000  0  4G 3G12G19G13
  20937015.578    20937018.978    23869649.592 9 -48532140.444 8
  20935935.280    20935940.375    51635765.076 9 -74808821.111 8
  21829775.683    21829778.184    13423580.819 8 -23553258.071 8
  20819336.051    20819339.741    75136019.425 9-125707922.980 8
 90  2 24  8 50 29.0800000  0  4G 3G12G19G13
  20933654.004    20933657.468    23851983.091 9 -48545906.555 8
  20942757.559    20942760.894    51671613.205 9 -74780887.507 8
  21828689.884    21828693.318    13417875.177 8 -23557704.029 8
  20821922.528    20821925.627    75149606.624 9-125697335.563 8
 90  2 24  8 50 44.0800000  0  4G 3G12G19G13
  20930298.199    20930300.061    23834345.395 9 -48559650.204 9
  20949598.584    20949602.478    51707562.076 9 -74752875.422 8
  21827629.105    21827632.124    13412303.170 9 -23562045.859 8
  20824509.708    20824513.233    75163207.605 9-125686737.408 8
 90  2 24  8 50 59.0800000  0  4G 3G12G19G13
  20926947.981    20926950.437    23816736.571 9 -48573371.372 8
  20956458.726    20956462.476    51743611.331 9 -74724785.092 9
  21826592.890    21826596.726    13406864.785 9 -23566283.568 8
  20827099.701    20827104.635    75176822.113 8-125676128.701 7
 90  2 24  8 51 14.0800000  0  4G 3G12G19G13
  20923602.048    20923605.184    23799156.108 9 -48587070.436 8
  20963337.757    20963341.736    51779760.270 9 -74696617.093 8
  21825584.607    21825586.963    13401559.866 9 -23570417.273 7
  20829693.081    20829698.627    75190449.785 9-125665509.754 8
 90  2 24  8 51 29.0800000  0  4G 3G12G19G13
  20920261.803    20920264.616    23781604.306 9 -48600747.176 7
  20970235.188    20970239.624    51816008.726 9 -74668371.561 7
  21824599.424    21824603.198    13396388.369 9 -23574447.026 7
  20832289.728    20832292.200    75204090.753 9-125654880.426 7
 90  2 24  8 51 44.0800000  0  4G 3G12G19G13
  20916927.339    20916930.009    23764081.022 8 -48614401.667 7
  20977151.708    20977156.302    51852356.363 9 -74640048.741 8
  21823640.717    21823644.748    13391350.157 9 -23578372.913 7
  20834888.638    20834891.572    75217745.271 9-125644240.552 8
 90  2 24  8 51 59.0800000  0  4G 3G12G19G13
  20913598.621    20913601.412    23746586.104 9 -48628034.060 8
  20984087.546    20984091.052    51888802.575 9 -74611649.107 8
  21822708.175    21822711.417    13386445.147 8 -23582195.012 7
  20837488.884    20837492.590    75231413.120 9-125633590.290 8
 90  2 24  8 52 14.0800000  0  4G 3G12G19G13
  20910274.231    20910277.544    23729119.521 9 -48641644.381 8
  20991041.470    20991045.820    51925347.034 9 -74583172.909 8
  21821798.860    21821802.765    13381673.335 9 -23585913.312 8
  20840091.958    20840095.600    75245094.212 9-125622929.709 8
 90  2 24  8 52 29.0800000  0  4G 3G12G19G13
  20906956.587    20906959.079    23711681.126 9 -48655232.751 8
  20998013.881    20998019.077    51961989.472 8 -74554620.379 7
  21820916.723    21820921.061    13377034.580 9 -23589527.921 8
  20842697.269    20842700.918    75258788.409 9-125612258.907 8
 90  2 24  8 52 44.0800000  0  4G 3G12G19G13
  20903642.128    20903647.209    23694271.123 9 -48668798.975 7
  21005005.267    21005009.733    51998729.510 9 -74525991.798 8
  21820058.941    21820062.694    13372529.257 8 -23593038.558 8
  20845305.384    20845310.070    75272495.762 9-125601577.879 8
 90  2 24  8 52 59.0800000  0  4G 3G12G19G13
  20900334.709    20900338.438    23676889.105 9 -48682343.412 8
  21012014.998    21012020.378    52035566.450 9 -74497287.713 8
  21819228.336    21819232.943    13368156.719 9 -23596445.746 8
  20847917.101    20847920.643    75286216.093 9-125590886.706 8
 90  2 24  8 53 14.0800000  0  4G 3G12G19G13
  20897033.198    20897036.233    23659535.047 9 -48695866.041 7
  21019043.516    21019047.172    52072499.976 9 -74468508.352 8
  21818421.087    21818425.029    13363917.178 9 -23599749.294 9
  20850529.884    20850534.214    75299949.400 9-125580185.425 7
 90  2 24  8 53 29.0800000  0  4G 3G12G19G13
  20893736.189    20893739.282    23642208.809 9 -48709366.991 8
  21026090.006    21026093.133    52109529.601 9 -74439654.111 9
  21817639.702    21817643.687    13359810.058 9 -23602949.642 8
  20853146.931    20853149.683    75313695.655 9-125569474.058 7
 90  2 24  8 53 44.0800000  0  4G 3G12G19G13
  20890442.871    20890446.206    23624910.256 9 -48722846.391 8
  21033153.774    21033160.108    52146655.003 9 -74410725.250 8
  21816883.344    21816886.674    13355835.517 9 -23606046.690 9
  20855765.138    20855766.119    75327454.637 9-125558752.779 7
 90  2 24  8 53 59.0800000  0  4G 3G12G19G13
  20887155.993    20887160.187    23607639.435 9 -48736304.169 8
  21040237.434    21040242.127    52183875.905 9 -74381721.970 8
  21816151.514    21816155.639    13351993.361 8 -23609040.569 8
  20858385.495    20858388.833    75341226.406 9-125548021.531 7
 90  2 24  8 54 14.0800000  0  4G 3G12G19G13
  20883876.126    20883879.761    23590396.703 9 -48749740.063 8
  21047338.142    21047342.951    52221192.079 9 -74352644.438 8
  21815445.957    21815449.878    13348283.990 9 -23611930.997 8
  20861008.992    20861012.285    75355011.512 9-125537279.895 7
 90  2 24  8 54 29.0800000  0  4G 3G12G19G13
  20880600.551    20880603.100    23573181.752 9 -48763154.310 8
  21054456.879    21054461.889    52258602.795 9 -74323493.243 8
  21814765.230    21814769.434    13344707.050 9 -23614718.225 8
  20863633.695    20863637.903    75368809.621 9-125526528.131 8
 90  2 24  8 54 44.0800000  0  4G 3G12G19G13
  20877329.098    20877332.677    23555994.303 9 -48776547.113 8
  21061594.633    21061598.498    52296107.609 9 -74294268.731 8
  21814110.990    21814113.358    13341262.573 8 -23617402.231 8
  20866262.437    20866264.491    75382620.423 8-125515766.477 8
 90  2 24  8 54 59.0800000  0  4G 3G12G19G13
  20874063.569    20874066.733    23538834.295 9 -48789918.543 9
  21068749.295    21068753.910    52333706.146 9 -74264971.185 9
  21813479.232    21813483.476    13337950.226 8 -23619983.288 8
  20868893.088    20868895.963    75396443.769 8-125504995.050 7
 90  2 24  8 55 14.0800000  0  4G 3G12G19G13
  20870803.991    20870807.571    23521701.749 9 -48803268.572 8
  21075921.720    21075927.831    52371398.033 9 -74235600.907 8
  21812874.465    21812877.589    13334769.992 8 -23622461.384 8
  20871525.980    20871528.150    75410279.790 9-125494213.742 8
 90  2 24  8 55 29.0800000  0  4G 3G12G19G13
  20867549.481    20867552.788    23504596.557 9 -48816597.291 9
  21083111.717    21083115.825    52409182.763 9 -74206158.277 8
  21812295.073    21812296.814    13331721.694 9 -23624836.675 8
  20874160.607    20874164.481    75424128.483 9-125483422.554 8
 90  2 24  8 55 44.0800000  0  4G 3G12G19G13
  20864298.919    20864303.000    23487518.747 9 -48829904.666 8
  21090319.465    21090324.545    52447060.032 9 -74176643.540 7
  21811739.160    21811742.623    13328805.492 9 -23627109.052 8
  20876799.015    20876802.032    75437989.981 9-125472621.408 8
 90  2 24  8 55 59.0800000  0  4G 3G12G19G13
  20861054.424    20861057.102    23470468.514 9 -48843190.574 9
  21097545.301    21097550.253    52485029.628 9 -74147056.852 8
  21811210.394    21811212.804    13326021.285 9 -23629278.567 8
  20879439.837    20879441.973    75451864.251 9-125461810.289 8
 90  2 24  8 56 14.0800000  0  4G 3G12G19G13
  20857814.995    20857817.357    23453445.693 9 -48856455.108 8
  21104788.356    21104792.971    52523091.277 9 -74117398.435 9
  21810705.015    21810707.419    13323368.869 9 -23631345.375 8
  20882082.298    20882085.306    75465751.260 9-125450989.252 8
 90  2 24  8 56 29.0800000  0  4G 3G12G19G13
  20854581.318    20854583.652    23436450.268 9 -48869698.299 9
  21112049.034    21112053.856    52561244.510 9 -74087668.658 8
  21810226.072    21810228.283    13320848.157 9 -23633309.571 7
  20884726.350    20884730.295    75479651.214 8-125440158.120 7
 90  2 24  8 56 44.0800000  0  4G 3G12G19G13
  20851352.135    20851355.170    23419482.259 9 -48882920.110 8
  21119326.167    21119330.131    52599488.844 9 -74057867.899 8
  21809770.862    21809774.217    13318459.170 9 -23635171.133 8
  20887373.805    20887377.586    75493563.945 8-125429317.053 7
 90  2 24  8 56 59.0800000  0  4G 3G12G19G13
  20848129.418    20848131.666    23402541.337 9 -48896120.849 8
  21126620.757    21126625.881    52637823.761 9 -74027996.546 9
  21809341.471    21809344.609    13316201.779 9 -23636930.147 8
  20890022.611    20890028.200    75507489.370 9-125418466.079 8
 90  2 24  8 57 14.0800000  0  4G 3G12G19G13
  20844910.307    20844912.713    23385627.603 9 -48909300.370 7
  21133932.876    21133936.855    52676248.871 9 -73998054.918 8
  21808936.937    21808939.308    13314075.901 9 -23638586.688 8
  20892674.970    20892680.141    75521427.211 9-125407605.440 8
 90  2 24  8 57 29.0800000  0  4G 3G12G19G13
  20841697.150    20841699.427    23368741.077 9 -48922458.702 9
  21141263.003    21141267.541    52714764.140 9 -73968043.038 8
  21808557.250    21808560.148    13312081.210 8 -23640140.974 7
  20895330.041    20895334.183    75535377.808 8-125396734.846 7
 90  2 24  8 57 44.0800000  0  4G 3G12G19G13
  20838488.658    20838491.594    23351881.561 9 -48935595.984 8
  21148610.165    21148613.723    52753368.851 9 -73937961.450 8
  21808202.500    21808205.636    13310217.941 8 -23641592.878 8
  20897988.091    20897991.461    75549340.904 9-125385854.517 7
 90  2 24  8 57 59.0800000  0  4G 3G12G19G13
  20835285.001    20835287.764    23335048.777 9 -48948712.437 8
  21155971.959    21155976.503    52792062.427 9 -73907810.633 8
  21807873.153    21807876.317    13308485.749 9 -23642942.652 8
  20900646.632    20900651.235    75563316.422 9-125374964.507 7
 90  2 24  8 58 14.0800000  0  4G 3G12G19G13
  20832087.698    20832089.503    23318242.996 9 -48961807.857 8
  21163351.818    21163356.584    52830844.741 9 -73877590.670 8
  21807568.268    21807571.527    13306884.669 9 -23644190.227 8
  20903309.372    20903312.382    75577304.426 9-125364064.760 7
 90  2 24  8 58 29.0800000  0  4G 3G12G19G13
  20828893.458    20828896.792    23301464.112 9 -48974882.308 8
  21170749.448    21170753.321    52869715.265 9 -73847301.977 8
  21807288.198    21807291.128    13305414.421 9 -23645335.876 7
  20905973.913    20905976.778    75591305.021 8-125353155.197 6
 90  2 24  8 58 44.0800000  0  4G 3G12G19G13
  20825705.226    20825708.991    23284711.899 9 -48987935.982 8
  21178163.715    21178167.171    52908673.455 9 -73816944.963 8
  21807032.254    21807036.110    13304074.962 9 -23646379.624 8
  20908640.545    20908644.931    75605318.038 9-125342235.979 7
 90  2 24  8 58 59.0800000  0  4G 3G12G19G13
  20822523.159    20822526.370    23267986.250 9 -49000968.959 8
  21185593.198    21185597.999    52947718.753 9 -73786520.059 8
  21806803.029    21806807.017    13302865.850 9 -23647321.798 9
  20911308.916    20911312.809    75619343.319 9-125331307.180 7
 90  2 24  8 59 14.0800000  0  4G 3G12G19G13
  20819344.990    20819348.888    23251287.099 9 -49013981.271 8
  21193038.914    21193043.630    52986850.922 9 -73756027.478 8
  21806598.224    21806602.603    13301787.342 9 -23648162.193 7
  20913980.343    20913984.163    75633380.999 9-125320368.739 8
 90  2 24  8 59 29.0800000  0  4G 3G12G19G13
  20816173.119    20816176.468    23234614.552 9 -49026972.875 8
  21200502.175    21200506.047    53026069.517 9 -73725467.556 7
  21806416.176    21806421.507    13300839.389 9 -23648900.850 8
  20916653.628    20916657.779    75647430.980 9-125309420.704 7
 90  2 24  8 59 44.0800000  0  4G 3G12G19G13
  20813004.967    20813008.693    23217968.651 9 -49039943.696 8
  21207982.276    21207985.768    53065374.230 9 -73694840.515 8
  21806261.283    21806265.244    13300021.772 9 -23649537.962 8
  20919329.863    20919333.340    75661493.659 9-125298462.782 8
 90  2 24  8 59 59.0800000  0  4G 3G12G19G13
  20809843.240    20809846.432    23201349.314 9 -49052893.826 7
  21215477.460    21215481.913    53104764.802 9 -73664146.570 9
  21806132.258    21806134.211    13299334.422 9 -23650073.563 8
  20922009.975    20922012.336    75675568.851 9-125287495.104 8
 90  2 24  9  0 14.0800000  0  4G 3G12G19G13
  20806685.230    20806688.682    23184756.693 9 -49065823.131 7
  21222989.622    21222994.953    53144240.793 9 -73633386.074 8
  21806026.124    21806028.299    13298777.393 8 -23650507.616 6
  20924689.858    20924692.504    75689656.472 9-125276517.736 8
 90  2 24  9  0 29.0800000  0  4G 3G12G19G13
  20803532.829    20803535.308    23168190.638 9 -49078731.757 8
  21230518.833    21230522.025    53183801.893 9 -73602559.266 7
  21805944.565    21805945.931    13298350.581 8 -23650840.201 8
  20927373.116    20927375.650    75703756.596 9-125265530.633 7
 90  2 24  9  0 44.0800000  0  4G 3G12G19G13
  20800386.184    20800388.428    23151651.179 9 -49091619.643 8
  21238062.310    21238066.152    53223447.756 9 -73571666.400 8
  21805888.091    21805890.341    13298053.904 9 -23651071.387 7
  20930058.637    20930061.228    75717869.323 9-125254533.707 8
 90  2 24  9  0 59.0800000  0  4G 3G12G19G13
  20797243.357    20797246.567    23135138.388 9 -49104486.749 8
  21245623.467    21245627.345    53263177.978 9 -73540707.819 8
  21805855.821    21805860.482    13297887.376 9 -23651201.161 7
  20932746.604    20932750.268    75731994.855 9-125243526.795 7
 90  2 24  9  1 14.0800000  0  4G 3G12G19G13
  20794105.405    20794108.987    23118651.571 9 -49117333.627 8
  21253199.769    21253202.223    53302991.684 9 -73509684.159 8
  21805848.678    21805852.762    13297850.102 9 -23651230.193 8
  20935437.148    20935440.253    75746132.366 9-125232510.564 7
 90  2 24  9  1 29.0800000  0  4G 3G12G19G13
  20790973.964    20790976.773    23102191.414 9 -49130159.723 8
  21260791.132    21260794.955    53342888.887 9 -73478595.449 7
  21805866.438    21805870.514    13297942.586 9 -23651158.142 8
  20938128.563    20938132.328    75760282.408 9-125221484.548 7
 90  2 24  9  1 44.0800000  0  4G 3G12G19G13
  20787846.547    20787849.721    23085757.863 8 -49142965.076 8
  21268399.680    21268403.029    53382869.363 9 -73447441.840 8
  21805909.070    21805912.153    13298164.989 9 -23650984.854 8
  20940823.571    20940828.036    75774445.256 9-125210448.589 8
 90  2 24  9  1 59.0800000  0  4G 3G12G19G13
  20784724.108    20784727.008    23069350.634 8 -49155749.925 8
  21276022.344    21276027.075    53422932.387 8 -73416223.916 8
  21805976.249    21805979.004    13298516.719 9 -23650710.770 8
  20943521.370    20943527.609    75788620.558 9-125199402.889 8
 90  2 24  9  2 14.0800000  0  4G 3G12G19G13
  20781606.451    20781609.184    23052969.602 9 -49168514.377 8
  21283662.832    21283665.437    53463077.517 9 -73384942.022 7
  21806067.531    21806070.428    13298997.836 9 -23650335.887 8
  20946221.299    20946225.520    75802808.468 9-125188347.392 8
 90  2 24  9  2 29.0800000  0  4G 3G12G19G13
  20778493.940    20778498.922    23036614.773 8 -49181258.390 8
  21291317.155    21291321.505    53503304.382 9 -73353596.420 8
  21806183.346    21806187.149    13299608.261 9 -23649860.244 8
  20948924.262    20948927.983    75817008.834 9-125177282.179 9
 90  2 24  9  2 44.0800000  0  4G 3G12G19G13
  20775386.348    20775390.818    23020286.170 9 -49193981.974 8
  21298987.862    21298990.568    53543612.727 9 -73322187.340 7
  21806323.577    21806326.138    13300347.860 9 -23649283.928 8
  20951627.655    20951632.364    75831221.640 9-125166207.275 7
 90  2 24  9  2 59.0800000  0  4G 3G12G19G13
  20772285.174    20772287.541    23003983.798 9 -49206685.110 8
  21306674.131    21306677.171    53584001.876 9 -73290715.297 7
  21806489.527    21806492.967    13301216.244 9 -23648607.262 7
  20954335.842    20954338.604    75845446.732 8-125155122.795 7
 90  2 24  9  3 14.0800000  0  4G 3G12G19G13
  20769188.362    20769191.100    22987707.348 9 -49219368.060 8
  21314375.031    21314378.137    53624471.561 9 -73259180.487 8
  21806679.375    21806682.918    13302213.348 9 -23647830.310 8
  20957044.386    20957048.364    75859684.227 8-125144028.648 7
 90  2 24  9  3 29.0800000  0  4G 3G12G19G13
  20766095.838    20766098.386    22971457.192 9 -49232030.515 8
  21322090.004    21322095.436    53665021.356 9 -73227583.260 8
  21806893.252    21806897.538    13303339.103 9 -23646953.105 7
  20959756.693    20959759.842    75873934.363 9-125132924.633 7
 90  2 24  9  3 44.0800000  0  4G 3G12G19G13
  20763008.565    20763011.472    22955233.000 9 -49244672.732 8
  21329822.642    21329826.627    53705650.855 8 -73195923.938 8
  21807132.123    21807135.000    13304593.294 8 -23645975.825 8
  20962470.646    20962475.126    75888197.035 9-125121810.873 8
 90  2 24  9  3 59.0800000  0  4G 3G12G19G13
  20759926.165    20759929.203    22939034.805 9 -49257294.708 8
  21337569.267    21337572.752    53746359.597 9 -73164202.853 9
  21807396.299    21807397.787    13305976.024 9 -23644898.383 7
  20965187.104    20965190.324    75902471.921 9-125110687.596 8
 90  2 24  9  4 14.0800000  0  4G 3G12G19G13
  20756849.410    20756851.716    22922862.628 9 -49269896.400 8
  21345331.110    21345335.039    53787147.288 8 -73132420.262 8
  21807682.012    21807686.701    13307487.263 9 -23643720.795 8
  20967905.750    20967909.156    75916759.110 9-125099554.720 7
 90  2 24  9  4 29.0800000  0  4G 3G12G19G13
  20753776.726    20753778.354    22906716.317 9 -49282477.943 8
  21353107.683    21353110.932    53828013.476 9 -73100576.509 8
  21807994.253    21807998.139    13309126.765 9 -23642443.254 8
  20970627.387    20970630.537    75931058.850 9-125088412.069 8
 90  2 24  9  4 44.0800000  0  4G 3G12G19G13
  20750708.702    20750711.430    22890595.690 9 -49295039.479 8
  21360899.002    21360902.459    53868957.557 9 -73068672.051 8
  21808331.127    21808335.554    13310893.979 9 -23641066.209 8
  20973350.212    20973353.890    75945370.842 8-125077259.870 7
 90  2 24  9  4 59.0800000  0  4G 3G12G19G13
  20747646.248    20747648.231    22874500.706 9 -49307581.026 8
  21368705.075    21368709.769    53909979.043 9 -73036707.289 8
  21808691.101    21808695.474    13312788.715 9 -23639589.814 8
  20976077.244    20976079.934    75959695.215 9-125066098.039 8
 90  2 24  9  5 14.0800000  0  4G 3G12G19G13
  20744588.035    20744591.410    22858431.560 9 -49320102.447 7
  21376526.473    21376529.371    53951077.680 9 -73004682.403 8
  21809076.323    21809080.283    13314810.911 9 -23638014.071 7
  20978805.476    20978808.124    75974031.979 9-125054926.541 8
 90  2 24  9  5 29.0800000  0  4G 3G12G19G13
  20741535.706    20741538.140    22842387.835 9 -49332604.044 7
  21384361.779    21384365.450    53992252.848 9 -72972597.874 8
  21809485.651    21809489.955    13316960.472 9 -23636339.094 8
  20981534.669    20981539.006    75988380.948 9-125043745.533 7
 90  2 24  9  5 44.0800000  0  4G 3G12G19G13
  20738487.032    20738488.228    22826369.693 9 -49345085.693 7
  21392211.773    21392215.659    54033504.249 9 -72940453.930 9
  21809918.212    21809922.812    13319237.118 8 -23634565.097 7
  20984267.238    20984271.460    76002742.229 9-125032554.928 9
 90  2 24  9  5 59.0800000  0  4G 3G12G19G13
  20735443.589    20735445.744    22810376.949 9 -49357547.580 8
  21400075.112    21400079.398    54074831.384 9 -72908250.993 8
  21810376.000    21810380.048    13321640.868 9 -23632692.030 8
  20987002.812    20987005.804    76017115.736 9-125021354.793 8
 90  2 24  9  6 14.0800000  0  4G 3G12G19G13
  20732404.978    20732407.387    22794409.690 9 -49369989.615 8
  21407953.917    21407958.447    54116233.810 9 -72875989.387 9
  21810856.932    21810860.914    13324171.465 8 -23630720.137 8
  20989740.676    20989742.951    76031501.494 9-125010145.113 7
 90  2 24  9  6 29.0800000  0  4G 3G12G19G13
  20729371.598    20729374.302    22778467.968 9 -49382411.734 9
  21415846.603    21415850.891    54157711.198 9 -72843669.368 8
  21811363.085    21811366.391    13326828.905 9 -23628649.410 8
  20992480.772    20992482.677    76045899.473 9-124998925.913 7
 90  2 24  9  6 44.0800000  0  4G 3G12G19G13
  20726343.368    20726345.022    22762551.494 9 -49394814.182 8
  21423754.550    21423758.199    54199263.016 9 -72811291.336 9
  21811893.466    21811896.223    13329612.998 9 -23626479.991 7
  20995223.071    20995224.402    76060309.546 9-124987697.300 7
 90  2 24  9  6 59.0800000  0  4G 3G12G19G13
  20723318.359    20723321.672    22746660.417 9 -49407196.835 7
  21431675.274    21431680.140    54240888.706 9 -72778855.762 9
  21812447.725    21812451.059    13332523.460 9 -23624212.105 7
  20997966.830    20997969.192    76074731.499 9-124976459.422 7
 90  2 24  9  7 14.0800000  0  4G 3G12G19G13
  20720299.594    20720302.534    22730794.579 9 -49419559.831 8
  21439610.674    21439615.605    54282588.078 9 -72746362.759 9
  21813025.106    21813029.169    13335560.219 9 -23621845.811 7
  21000713.222    21000718.274    76089165.589 8-124965212.090 7
 90  2 24  9  7 29.0800000  0  4G 3G12G19G13
  20717284.806    20717287.601    22714954.167 8 -49431902.997 8
  21447559.408    21447563.938    54324360.785 9 -72713812.614 9
  21813626.900    21813630.911    13338723.145 9 -23619381.207 7
  21003462.046    21003466.355    76103612.135 9-124953955.046 8
 90  2 24  9  7 44.0800000  0  4G 3G12G19G13
  20714274.907    20714278.536    22699138.986 9 -49444226.513 8
  21455522.310    21455526.904    54366206.310 9 -72681205.723 9
  21814253.514    21814256.015    13342012.220 8 -23616818.295 7
  21006213.690    21006218.070    76118071.067 8-124942688.350 8
 90  2 24  9  7 59.0800000  0  4G 3G12G19G13
  20711270.158    20711274.682    22683349.100 9 -49456530.316 8
  21463499.062    21463503.720    54408124.281 9 -72648542.395 9
  21814903.345    21814906.404    13345427.207 9 -23614157.269 8
  21008967.107    21008971.530    76132542.140 8-124931412.192 8
 90  2 24  9  8 14.0800000  0  4G 3G12G19G13
  20708270.316    20708273.082    22667584.482 9 -49468814.419 8
  21471488.629    21471494.639    54450114.323 9 -72615822.905 9
  21815577.040    21815578.585    13348967.788 9 -23611398.377 7
  21011723.760    21011728.598    76147025.688 9-124920126.322 8
 90  2 24  9  8 29.0800000  0  4G 3G12G19G13
  20705274.131    20705278.569    22651845.272 9 -49481078.732 8
  21479493.148    21479498.973    54492176.057 9 -72583047.560 9
  21816274.489    21816278.212    13352634.295 9 -23608541.368 8
  21014482.428    21014486.036    76161521.845 9-124908830.594 8
 90  2 24  9  8 44.0800000  0  4G 3G12G19G13
  20702285.191    20702288.632    22636131.330 9 -49493323.367 7
  21487511.855    21487515.312    54534308.934 9 -72550216.758 8
  21816996.585    21816998.470    13356426.419 9 -23605586.453 7
  21017243.044    21017246.593    76176030.386 8-124897525.243 7
 90  2 24  9  8 59.0800000  0  4G 3G12G19G13
  20699299.851    20699302.089    22620442.517 9 -49505548.403 8
  21495542.475    21495547.326    54576512.613 9 -72517330.792 9
  21817741.568    21817744.862    13360343.505 9 -23602534.204 8
  21020006.764    21020010.270    76190551.336 9-124886210.214 7
 90  2 24  9  9 14.0800000  0  4G 3G12G19G13
  20696318.777    20696322.643    22604778.838 9 -49517753.870 8
  21503586.294    21503590.982    54618786.587 9 -72484390.063 9
  21818510.169    21818512.876    13364385.797 9 -23599384.370 8
  21022771.701    21022774.750    76205084.598 9-124874885.595 8
 90  2 24  9  9 29.0800000  0  4G 3G12G19G13
  20693343.768    20693346.692    22589140.018 9 -49529939.952 7
  21511643.187    21511649.275    54661130.286 9 -72451395.002 7
  21819303.006    21819306.230    13368552.961 9 -23596137.234 7
  21025540.587    21025543.235    76219630.055 9-124863551.477 8
 90  2 24  9  9 44.0800000  0  4G 3G12G19G13
  20690371.463    20690374.913    22573526.349 9 -49542106.459 8
  21519715.015    21519720.739    54703543.430 8 -72418345.807 8
  21820120.985    21820122.967    13372844.826 9 -23592792.940 7
  21028309.901    21028314.955    76234187.665 9-124852207.884 8
 90  2 24  9  9 59.0800000  0  4G 3G12G19G13
  20687405.492    20687408.621    22557937.681 9 -49554253.466 8
  21527798.865    21527803.393    54746025.631 9 -72385242.831 7
  21820961.077    21820963.278    13377261.091 9 -23589351.700 8
  21031083.368    21031086.701    76248757.644 9-124840854.678 8
 90  2 24  9 10 14.0800000  0  4G 3G12G19G13
  20684443.536    20684446.021    22542373.746 9 -49566381.205 8
  21535895.715    21535901.582    54788576.324 9 -72352086.479 8
  21821824.920    21821826.963    13381801.547 9 -23585813.690 7
  21033857.233    21033861.999    76263339.848 9-124829491.910 8
 90  2 24  9 10 29.0800000  0  4G 3G12G19G13
  20681486.717    20681490.114    22526834.769 9 -49578489.499 8
  21544006.880    21544011.876    54831195.089 8 -72318877.061 8
  21822711.819    21822715.181    13386466.318 9 -23582178.817 8
  21036635.190    21036638.783    76277934.331 9-124818119.585 8
 90  2 24  9 10 44.0800000  0  4G 3G12G19G13
  20678535.314    20678537.469    22511320.816 9 -49590578.289 8
  21552129.213    21552134.066    54873881.550 8 -72285614.908 7
  21823622.749    21823625.873    13391255.099 9 -23578447.311 7
  21039415.438    21039417.799    76292541.208 9-124806737.599 7
 90  2 24  9 10 59.0800000  0  4G 3G12G19G13
  20675587.692    20675589.818    22495831.487 9 -49602647.894 9
  21560265.872    21560269.486    54916635.245 9 -72252300.364 8
  21824558.217    21824562.614    13396167.801 8 -23574619.229 7
  21042197.431    21042201.082    76307160.550 9-124795345.925 7
 90  2 24  9 11 14.0800000  0  4G 3G12G19G13
  20672643.865    20672647.384    22480367.070 8 -49614698.086 9
  21568412.630    21568418.584    54959455.832 8 -72218933.694 7
  21825515.380    21825519.817    13401204.181 9 -23570694.778 8
  21044981.670    21044985.249    76321792.240 8-124783944.604 7
 90  2 24  9 11 29.0800000  0  4G 3G12G19G13
  20669705.580    20669708.291    22464927.373 9 -49626729.029 9
  21576575.311    21576579.011    55002342.745 9 -72185515.329 8
  21826497.135    21826502.495    13406364.055 9 -23566674.115 8
  21047766.655    21047770.847    76336436.363 8-124772533.604 7
 90  2 24  9 11 44.0800000  0  4G 3G12G19G13
  20666772.307    20666776.104    22449512.498 9 -49638740.615 8
  21584748.621    21584753.030    55045295.492 9 -72152045.661 7
  21827503.978    21827506.424    13411646.764 8 -23562557.722 8
  21050555.931    21050561.053    76351092.665 9-124761113.106 7
 90  2 24  9 11 59.0800000  0  4G 3G12G19G13
  20663844.267    20663846.559    22434122.016 9 -49650733.182 8
  21592935.196    21592937.523    55088313.581 9 -72118525.085 6
  21828532.310    21828536.571    13417052.211 9 -23558345.702 8
  21053347.612    21053350.889    76365761.081 9-124749683.169 7
 90  2 24  9 12 14.0800000  0  4G 3G12G19G13
  20660919.901    20660923.415    22418756.081 9 -49662706.630 8
  21601132.825    21601137.965    55131396.613 9 -72084953.904 7
  21829584.667    21829587.174    13422580.571 9 -23554037.896 7
  21056140.966    21056144.816    76380441.818 8-124738243.662 7
 90  2 24  9 12 29.0800000  0  4G 3G12G19G13
  20658000.035    20658003.993    22403414.743 9 -49674660.920 8
  21609344.485    21609348.233    55174544.283 9 -72051332.345 7
  21830659.316    21830663.601    13428231.499 8 -23549634.583 8
  21058937.799    21058940.889    76395134.829 9-124726794.567 8
 90  2 24  9 12 44.0800000  0  4G 3G12G19G13
  20655085.006    20655089.068    22388097.947 9 -49686596.081 8
  21617567.441    21617570.555    55217756.109 9 -72017660.809 8
  21831758.423    21831762.956    13434004.765 9 -23545135.939 8
  21061735.360    21061738.938    76409840.170 9-124715335.868 7
 90  2 24  9 12 59.0800000  0  4G 3G12G19G13
  20652176.230    20652179.369    22372805.677 9 -49698512.127 8
  21625803.277    21625806.682    55261031.662 9 -71983939.601 7
  21832879.799    21832883.978    13439900.331 9 -23540542.001 7
  21064536.198    21064539.848    76424557.813 8-124703867.577 8
 90  2 24  9 13 14.0800000  0  4G 3G12G19G13
  20649270.595    20649275.120    22357537.879 9 -49710409.106 7
  21634049.764    21634053.649    55304370.613 9 -71950169.004 8
  21834026.134    21834027.350    13445918.142 9 -23535852.795 7
  21067339.269    21067344.708    76439287.715 9-124692389.738 8
 90  2 24  9 13 29.0800000  0  4G 3G12G19G13
  20646369.567    20646372.907    22342294.694 9 -49722286.910 8
  21642308.801    21642311.893    55347772.380 9 -71916349.462 8
  21835193.747    21835196.486    13452057.667 9 -23531068.753 8
  21070145.287    21070148.107    76454030.043 9-124680902.197 7
 90  2 24  9 13 44.0800000  0  4G 3G12G19G13
  20643474.388    20643476.536    22327075.924 8 -49734145.694 7
  21650579.071    21650583.764    55391236.437 9 -71882481.387 9
  21836385.725    21836388.261    13458318.804 8 -23526189.958 7
  21072953.252    21072955.913    76468784.665 9-124669405.102 7
 90  2 24  9 13 59.0800000  0  4G 3G12G19G13
  20640582.082    20640585.976    22311881.581 8 -49745985.440 7
  21658862.698    21658866.312    55434762.520 9 -71848564.975 8
  21837600.232    21837603.616    13464701.417 9 -23521216.509 8
  21075762.733    21075766.268    76483551.614 9-124657898.405 8
 90  2 24  9 14 14.0800000  0  4G 3G12G19G13
  20637695.649    20637698.431    22296711.771 9 -49757806.065 8
  21667156.370    21667161.630    55478350.279 9 -71814600.506 9
  21838837.595    21838842.131    13471205.499 9 -23516148.398 7
  21078574.976    21078579.054    76498330.994 9-124646382.006 7
 90  2 24  9 14 29.0800000  0  4G 3G12G19G13
  20634813.969    20634815.877    22281566.596 8 -49769607.498 8
  21675463.486    21675467.186    55521999.448 9 -71780588.172 8
  21840098.241    21840101.791    13477830.851 9 -23510985.788 8
  21081389.079    21081394.188    76513122.966 9-124634855.797 8
 90  2 24  9 14 44.0800000  0  4G 3G12G19G13
  20631935.335    20631939.904    22266445.725 9 -49781390.004 7
  21683780.110    21683785.012    55565709.220 9 -71746528.629 8
  21841382.121    21841385.594    13484577.087 9 -23505728.983 8
  21084207.719    21084211.811    76527927.481 9-124623319.804 8
 90  2 24  9 14 59.0800000  0  4G 3G12G19G13
  20629063.665    20629067.414    22251349.178 9 -49793153.542 8
  21692109.992    21692113.470    55609479.485 9 -71712421.961 8
  21842689.612    21842692.388    13491444.079 9 -23500378.092 7
  21087027.201    21087030.262    76542744.695 9-124611773.924 7
 90  2 24  9 15 14.0800000  0  4G 3G12G19G13
  20626195.685    20626199.064    22236277.387 9 -49804897.799 8
  21700450.234    21700455.157    55653309.980 9 -71678268.341 8
  21844019.162    21844022.467    13498431.731 9 -23494933.177 7
  21089849.060    21089852.923    76557574.640 9-124600218.118 8
 90  2 24  9 15 29.0800000  0  4G 3G12G19G13
  20623331.754    20623334.795    22221229.853 9 -49816623.145 8
  21708802.029    21708806.480    55697199.831 9 -71644068.487 8
  21845371.285    21845374.809    13505539.851 9 -23489394.400 8
  21092673.709    21092677.959    76572417.054 9-124588652.612 8
 90  2 24  9 15 44.0800000  0  4G 3G12G19G13
  20620473.304    20620476.474    22206206.520 9 -49828329.611 8
  21717165.475    21717169.374    55741148.687 9 -71609822.634 8
  21846746.820    21846749.365    13512768.139 9 -23483761.972 8
  21095500.460    21095503.108    76587272.059 9-124577077.292 7
 90  2 24  9 15 59.0800000  0  4G 3G12G19G13
  20617619.299    20617621.637    22191207.686 9 -49840017.025 7
  21725538.906    21725545.117    55785156.108 9 -71575531.155 9
  21848144.081    21848147.505    13520116.289 9 -23478036.148 8
  21098329.244    21098332.951    76602139.692 9-124565492.120 7
 90  2 24  9 16 14.0800000  0  4G 3G12G19G13
  20614769.664    20614772.523    22176233.007 9 -49851685.596 9
  21733924.802    21733929.681    55829221.664 9 -71541194.376 9
  21849565.539    21849569.066    13527584.086 9 -23472217.097 8
  21101161.506    21101164.168    76617019.691 9-124553897.326 8
 90  2 24  9 16 29.0800000  0  4G 3G12G19G13
  20611923.787    20611927.566    22161282.437 9 -49863335.378 7
  21742321.543    21742326.187    55873344.858 9 -71506812.679 9
  21851010.331    21851013.766    13535171.411 9 -23466304.916 7
  21103994.583    21103998.649    76631912.199 9-124542292.785 8
 90  2 24  9 16 44.0800000  0  4G 3G12G19G13
  20609084.461    20609086.344    22146356.053 9 -49874966.340 8
  21750729.624    21750733.138    55917525.258 9 -71472386.425 8
  21852476.537    21852479.241    13542877.935 9 -23460299.838 8
  21106831.238    21106834.901    76646817.339 9-124530678.377 8
 90  2 24  9 16 59.0800000  0  4G 3G12G19G13
  20606248.597    20606251.285    22131453.885 8 -49886578.412 8
  21759146.598    21759151.880    55961762.490 9 -71437915.898 9
  21853966.279    21853968.640    13550703.452 9 -23454202.044 8
  21109669.881    21109673.531    76661734.975 9-124519054.253 8
 90  2 24  9 17 14.0800000  0  4G 3G12G19G13
  20603416.983    20603420.476    22116576.042 9 -49898171.540 9
  21767575.987    21767580.073    56006056.230 9 -71403401.323 9
  21855478.306    21855480.578    13558647.802 9 -23448011.640 8
  21112511.500    21112514.649    76676665.348 9-124507420.199 8
 90  2 24  9 17 29.0800000  0  4G 3G12G19G13
  20600590.807    20600594.093    22101722.654 9 -49909745.622 9
  21776015.004    21776020.085    56050406.150 9 -71368842.953 8
  21857011.633    21857014.750    13566711.043 9 -23441728.608 9
  21115355.853    21115357.914    76691608.753 9-124495775.993 8
 90  2 24  9 17 44.0800000  0  4G 3G12G19G13
  20597768.365    20597771.243    22086893.460 9 -49921300.818 8
  21784465.227    21784470.000    56094811.500 9 -71334241.408 8
  21858568.642    21858572.226    13574892.910 9 -23435353.133 7
  21118201.608    21118204.642    76706564.951 9-124484121.823 8
 90  2 24  9 17 59.0800000  0  4G 3G12G19G13
  20594951.461    20594954.812    22072088.205 9 -49932837.384 8
  21792925.444    21792930.940    56139271.866 9 -71299596.982 9
  21860148.094    21860151.965    13583193.185 9 -23428885.399 8
  21121049.309    21121053.918    76721533.894 8-124472457.714 7
 90  2 24  9 18 14.0800000  0  4G 3G12G19G13
  20592139.409    20592142.319    22057307.102 8 -49944355.119 8
  21801397.302    21801401.695    56183786.835 9 -71264910.023 8
  21861750.478    21861752.517    13591611.283 9 -23422325.839 7
  21123899.987    21123905.396    76736515.359 9-124460783.855 8
 90  2 24  9 18 29.0800000  0  4G 3G12G19G13
  20589330.928    20589333.402    22042550.426 9 -49955853.836 8
  21809877.759    21809883.133    56228356.162 8 -71230180.708 8
  21863374.911    21863377.915    13600147.454 9 -23415674.297 7
  21126753.396    21126758.191    76751509.869 8-124449099.831 7
 90  2 24  9 18 44.0800000  0  4G 3G12G19G13
  20586527.647    20586530.228    22027818.007 9 -49967333.631 8
  21818369.070    21818374.937    56272979.658 8 -71195409.172 8
  21865021.689    21865024.432    13608801.530 9 -23408930.862 8
  21129609.769    21129613.018    76766517.430 9-124437405.652 8
 90  2 24  9 18 59.0800000  0  4G 3G12G19G13
  20583727.907    20583731.064    22013109.735 9 -49978794.605 9
  21826871.149    21826876.537    56317656.701 9 -71160595.925 9
  21866691.536    21866693.332    13617572.969 9 -23402095.993 8
  21132467.544    21132471.337    76781537.937 8-124425701.354 8
 90  2 24  9 19 14.0800000  0  4G 3G12G19G13
  20580934.481    20580938.136    21998425.835 9 -49990236.609 8
  21835383.587    21835387.909    56362386.757 9 -71125741.344 8
  21868382.600    21868386.015    13626461.521 9 -23395169.851 7
  21135328.566    21135332.430    76796571.349 9-124413987.027 8
 90  2 24  9 19 29.0800000  0  4G 3G12G19G13
  20578144.141    20578146.358    21983766.224 9 -50001659.682 8
  21843905.842    21843910.036    56407169.584 9 -71090845.648 7
  21870095.492    21870100.485    13635467.137 9 -23388152.493 7
  21138192.309    21138196.129    76811617.997 9-124402262.366 7
 90  2 24  9 19 44.0800000  0  4G 3G12G19G13
  20575358.779    20575362.515    21969130.944 9 -50013063.798 8
  21852437.848    21852442.228    56452004.795 9 -71055909.130 9
  21871832.175    21871836.128    13644589.584 9 -23381044.107 9
  21141058.469    21141061.689    76826677.944 9-124390527.353 8
 90  2 24  9 19 59.0800000  0  4G 3G12G19G13
  20572577.125    20572582.623    21954519.824 9 -50024449.074 8
  21860978.776    21860983.541    56496891.780 9 -71020932.272 9
  21873589.580    21873592.815    13653828.761 9 -23373844.749 8
  21143926.360    21143930.625    76841750.874 9-124378782.210 8
 90  2 24  9 20 14.0800000  0  4G 3G12G19G13
  20569802.846    20569806.060    21939933.021 9 -50035815.417 8
  21869530.829    21869535.430    56541830.203 9 -70985915.320 7
  21875370.847    21875372.700    13663184.371 9 -23366554.668 9
  21146797.314    21146800.476    76856836.912 9-124367026.860 9
 90  2 24  9 20 29.0800000  0  4G 3G12G19G13
  20567032.353    20567034.921    21925370.509 9 -50047162.824 8
  21878091.890    21878096.091    56586819.640 9 -70950858.650 8
  21877172.821    21877176.653    13672656.538 8 -23359173.768 9
  21149670.298    21149672.846    76871936.140 9-124355261.236 7
 90  2 24  9 20 44.0800000  0  4G 3G12G19G13
  20564265.650    20564268.889    21910832.496 9 -50058491.143 8
  21886663.032    21886666.009    56631859.817 9 -70915762.431 8
  21878997.594    21879001.466    13682244.955 9 -23351702.290 8
  21152546.031    21152549.194    76887048.850 9-124343485.113 8
 90  2 24  9 20 59.0800000  0  4G 3G12G19G13
  20561503.714    20561505.653    21896318.797 9 -50069800.520 8
  21895243.203    21895248.807    56676950.087 9 -70880627.164 8
  21880843.649    21880847.493    13691949.088 9 -23344140.651 9
  21155424.440    21155428.432    76902174.836 9-124331698.645 7
 90  2 24  9 21 14.0800000  0  4G 3G12G19G13
  20558745.761    20558749.662    21881829.120 9 -50081091.179 8
  21903833.026    21903837.499    56722089.893 9 -70845453.296 8
  21882712.555    21882715.814    13701768.503 9 -23336489.160 8
  21158306.038    21158308.987    76917314.158 8-124319901.777 8
 90  2 24  9 21 29.0800000  0  4G 3G12G19G13
  20555993.821    20555996.609    21867363.305 9 -50092363.237 8
  21912432.500    21912436.128    56767278.570 9 -70810241.353 8
  21884603.082    21884607.504    13711703.204 8 -23328747.845 7
  21161189.255    21161192.147    76932466.355 9-124308094.877 8
 90  2 24  9 21 44.0800000  0  4G 3G12G19G13
  20553246.145    20553247.285    21852921.542 9 -50103616.552 7
  21921040.509    21921044.724    56812515.698 9 -70774991.652 8
  21886515.620    21886518.947    13721752.834 9 -23320916.965 7
  21164074.375    21164079.026    76947631.504 9-124296277.881 8
 90  2 24  9 21 59.0800000  0  4G 3G12G19G13
  20550502.214    20550504.011    21838503.932 9 -50114851.065 8
  21929658.256    21929663.880    56857801.040 9 -70739704.386 8
  21888450.177    21888454.602    13731917.234 9 -23312996.659 8
  21166962.500    21166966.421    76962810.006 9-124284450.476 8
 90  2 24  9 22 14.0800000  0  4G 3G12G19G13
  20547762.201    20547766.864    21824110.460 9 -50126066.751 8
  21938284.095    21938289.641    56903134.317 9 -70704379.777 9
  21890405.614    21890409.599    13742196.168 9 -23304987.118 8
  21169852.856    21169856.534    76978002.184 9-124272612.426 8
 90  2 24  9 22 29.0800000  0  4G 3G12G19G13
  20545028.351    20545032.066    21809741.293 9 -50137263.497 8
  21946919.758    21946925.467    56948515.105 9 -70669018.153 8
  21892384.254    21892387.884    13752589.587 9 -23296888.352 8
  21172747.348    21172751.856    76993207.855 9-124260763.855 8
 90  2 24  9 22 44.0800000  0  4G 3G12G19G13
  20542298.121    20542302.202    21795396.158 9 -50148441.525 8
  21955564.112    21955569.522    56993942.936 9 -70633619.859 8
  21894384.462    21894387.574    13763097.180 9 -23288700.623 8
  21175643.285    21175646.892    77008426.985 9-124248904.796 9
 90  2 24  9 22 59.0800000  0  4G 3G12G19G13
  20539573.952    20539575.768    21781075.332 9 -50159600.605 8
  21964217.954    21964223.413    57039417.601 9 -70598185.067 8
  21896404.316    21896407.362    13773718.817 9 -23280424.024 8
  21178541.599    21178544.761    77023659.714 9-124237035.143 8
 90  2 24  9 23 14.0800000  0  4G 3G12G19G13
  20536852.229    20536856.069    21766778.880 9 -50170740.694 8
  21972880.131    21972885.311    57084938.592 9 -70562714.180 8
  21898446.441    21898451.490    13784454.424 9 -23272058.642 8
  21181443.401    21181447.552    77038906.094 9-124225154.858 7
 90  2 24  9 23 29.0800000  0  4G 3G12G19G13
  20534137.060    20534139.971    21752506.392 9 -50181862.101 7
  21981551.803    21981556.975    57130505.243 9 -70527207.722 9
  21900512.350    21900515.626    13795303.219 9 -23263605.038 8
  21184347.610    21184351.031    77054165.770 9-124213264.212 8
 90  2 24  9 23 44.0800000  0  4G 3G12G19G13
  20531425.136    20531428.839    21738258.121 9 -50192964.647 8
  21990231.129    21990235.993    57176117.253 9 -70491665.919 8
  21902596.995    21902600.586    13806264.966 9 -23255063.428 9
  21187253.321    21187257.028    77069439.245 9-124201362.810 8
 90  2 24  9 23 59.0800000  0  4G 3G12G19G13
  20528718.259    20528720.997    21724033.918 9 -50204048.449 8
  21998919.828    21998924.579    57221773.985 9 -70456089.259 9
  21904704.836    21904708.578    13817339.465 9 -23246433.956 9
  21190161.692    21190166.401    77084726.103 9-124189450.981 8
 90  2 24  9 24 14.0800000  0  4G 3G12G19G13
  20526016.246    20526020.384    21709833.666 9 -50215113.570 9
  22007616.282    22007621.850    57267474.936 9 -70420478.150 8
  21906834.789    21906837.374    13828526.643 9 -23237716.683 8
  21193073.270    21193078.180    77100026.440 9-124177528.651 7
 90  2 24  9 24 29.0800000  0  4G 3G12G19G13
  20523318.917    20523323.470    21695657.770 9 -50226159.725 8
  22016321.315    22016326.196    57313220.049 9 -70384832.628 9
  21908984.050    21908987.836    13839826.390 9 -23228911.695 8
  21195987.809    21195993.133    77115340.558 8-124165595.579 8
 90  2 24  9 24 44.0800000  0  4G 3G12G19G13
  20520626.303    20520628.561    21681506.015 9 -50237187.058 8
  22025034.226    22025038.970    57359008.948 9 -70349152.992 8
  21911155.872    21911159.599    13851238.198 9 -23220019.393 8
  21198905.940    21198909.146    77130668.554 9-124153651.709 8
 90  2 24  9 24 59.0800000  0  4G 3G12G19G13
  20517937.774    20517940.459    21667378.447 9 -50248195.552 9
  22033756.515    22033760.187    57404841.024 9 -70313439.701 9
  21913348.581    21913351.435    13862762.067 9 -23211039.767 8
  21201824.601    21201828.851    77146010.065 9-124141697.277 8
 90  2 24  9 25 14.0800000  0  4G 3G12G19G13
  20515253.721    20515256.985    21653275.073 9 -50259185.194 9
  22042486.189    22042491.062    57450715.811 9 -70277693.148 9
  21915563.440    21915566.548    13874397.734 9 -23201973.028 8
  21204746.494    21204751.160    77161365.564 9-124129731.960 9
 90  2 24  9 25 29.0800000  0  4G 3G12G19G13
  20512574.113    20512578.068    21639195.922 9 -50270155.957 8
  22051224.118    22051227.990    57496632.902 9 -70241913.629 9
  21917799.113    21917801.809    13886144.929 9 -23192819.384 7
  21207671.078    21207675.502    77176735.212 8-124117755.617 8
 90  2 24  9 25 44.0800000  0  4G 3G12G19G13
  20509900.730    20509903.401    21625140.905 9 -50281107.902 8
  22059969.267    22059974.856    57542591.839 9 -70206101.507 9
  21920055.861    21920059.042    13898003.330 9 -23183579.078 8
  21210599.769    21210603.248    77192118.776 9-124105768.425 9
 90  2 24  9 25 59.0800000  0  4G 3G12G19G13
  20507230.761    20507233.133    21611109.876 9 -50292041.171 7
  22068722.194    22068727.632    57588591.833 9 -70170257.368 8
  21922332.587    21922336.515    13909972.534 9 -23174252.440 8
  21213528.818    21213532.482    77207515.949 9-124093770.650 9
 90  2 24  9 26 14.0800000  0  4G 3G12G19G13
  20504565.023    20504567.772    21597103.039 8 -50302955.592 9
  22077483.561    22077488.942    57634632.703 9 -70134381.387 8
  21924631.259    21924634.692    13922052.390 9 -23164839.580 8
  21216462.203    21216465.638    77222927.154 9-124081761.940 8
 90  2 24  9 26 29.0800000  0  4G 3G12G19G13
  20501904.250    20501906.788    21583120.219 9 -50313851.303 8
  22086253.072    22086258.353    57680714.112 9 -70098473.804 8
  21926951.828    21926955.183    13934242.554 9 -23155340.747 8
  21219396.846    21219400.654    77238352.344 9-124069742.322 8
 90  2 24  9 26 44.0800000  0  4G 3G12G19G13
  20499246.833    20499249.438    21569161.417 9 -50324728.300 8
  22095030.545    22095034.781    57726835.394 9 -70062535.149 8
  21929291.978    21929295.559    13946542.682 9 -23145756.235 9
  21222334.781    21222339.991    77253791.298 9-124057711.970 9
 90  2 24  9 26 59.0800000  0  4G 3G12G19G13
  20496596.226    20496599.921    21555226.667 9 -50335586.542 8
  22103813.878    22103819.781    57772996.094 8 -70026565.806 8
  21931652.566    21931656.441    13958952.768 9 -23136086.049 7
  21225275.921    21225279.299    77269244.344 9-124045670.656 9
 90  2 24  9 27 14.0800000  0  4G 3G12G19G13
  20493948.518    20493951.972    21541315.824 9 -50346426.154 8
  22112604.129    22112610.233    57819195.568 9 -69990566.232 9
  21934035.312    21934038.860    13971472.247 9 -23126330.620 8
  21228218.563    21228222.270    77284711.261 9-124033618.514 8
 90  2 24  9 27 29.0800000  0  4G 3G12G19G13
  20491306.233    20491309.272    21527429.097 9 -50357246.983 8
  22121404.683    22121409.213    57865433.685 8 -69954536.563 9
  21936439.192    21936442.430    13984101.013 9 -23116490.028 8
  21231164.726    21231168.819    77300192.264 9-124021555.408 9
 90  2 24  9 27 44.0800000  0  4G 3G12G19G13
  20488668.924    20488671.311    21513566.632 9 -50368048.897 8
  22130210.195    22130215.241    57911710.166 8 -69918476.997 8
  21938862.139    21938866.574    13996839.042 9 -23106564.311 7
  21234113.322    21234117.371    77315687.386 9-124009481.300 8
 90  2 24  9 27 59.0800000  0  4G 3G12G19G13
  20486034.626    20486038.535    21499728.465 9 -50378831.900 8
  22139023.456    22139028.158    57958024.640 9 -69882387.826 8
  21941307.344    21941311.143    14009686.195 9 -23096553.564 8
  21237065.336    21237068.672    77331196.951 9-123997395.931 9
 90  2 24  9 28 14.0800000  0  4G 3G12G19G13
  20483405.856    20483409.736    21485914.323 9 -50389596.153 8
  22147844.207    22147849.309    58004376.349 9 -69846269.620 8
  21943772.525    21943777.057    14022641.747 9 -23086458.327 8
  21240019.025    21240023.005    77346720.798 9-123985299.427 8
 90  2 24  9 28 29.0800000  0  4G 3G12G19G13
  20480782.773    20480785.386    21472124.358 9 -50400341.581 8
  22156671.899    22156677.116    58050765.119 9 -69810122.538 9
  21946257.212    21946262.729    14035705.701 8 -23076278.641 8
  21242975.964    21242980.056    77362258.883 9-123973191.842 9
 90  2 24  9 28 44.0800000  0  4G 3G12G19G13
  20478161.982    20478165.907    21458358.771 9 -50411068.017 8
  22165505.743    22165511.124    58097190.607 9 -69773946.838 8
  21948765.390    21948770.487    14048877.790 8 -23066014.686 8
  21245935.777    21245939.426    77377811.353 9-123961073.046 8
 90  2 24  9 28 59.0800000  0  4G 3G12G19G13
  20475547.639    20475550.082    21444617.340 9 -50421775.616 8
  22174347.493    22174352.095    58143652.264 9 -69737742.976 8
  21951291.757    21951296.414    14062157.706 9 -23055666.718 8
  21248897.394    21248902.202    77393378.155 9-123948943.078 8
 90  2 24  9 29 14.0800000  0  4G 3G12G19G13
  20472937.749    20472940.616    21430900.083 8 -50432464.395 8
  22183195.060    22183200.592    58190149.520 9 -69701511.369 8
  21953840.071    21953844.528    14075544.867 9 -23045235.188 8
  21251862.530    21251866.808    77408959.158 9-123936802.048 8
 90  2 24  9 29 29.0800000  0  4G 3G12G19G13
  20470330.954    20470333.825    21417206.966 9 -50443134.361 8
  22192050.060    22192055.005    58236682.026 8 -69665252.290 8
  21956407.747    21956412.088    14089039.363 9 -23034719.999 8
  21254830.542    21254834.649    77424554.710 9-123924649.682 9
 90  2 24  9 29 44.0800000  0  4G 3G12G19G13
  20467729.404    20467733.350    21403538.150 9 -50453785.379 8
  22200911.951    22200916.846    58283249.465 9 -69628965.985 8
  21958996.985    21959000.870    14102641.136 9 -23024121.224 7
  21257801.789    21257804.980    77440164.949 9-123912485.868 8
 90  2 24  9 29 59.0800000  0  4G 3G12G19G13
  20465132.829    20465136.544    21389893.692 9 -50464417.421 9
  22209780.130    22209784.545    58329851.344 9 -69592652.846 9
  21961605.115    21961608.661    14116349.719 9 -23013439.226 8
  21260774.939    21260778.031    77455789.983 9-123900310.525 8
 90  2 24  9 30 14.0800000  0  4G 3G12G19G13
  20462541.631    20462544.816    21376273.512 9 -50475030.551 9
  22218654.605    22218660.001    58376487.309 9 -69556313.158 9
  21964234.226    21964238.153    14130164.682 9 -23002674.327 8
  21263750.521    21263754.056    77471429.764 9-123888123.694 9
 90  2 24  9 30 29.0800000  0  4G 3G12G19G13
  20459955.084    20459958.466    21362677.650 9 -50485624.724 8
  22227535.663    22227540.750    58423156.771 9 -69519947.368 7
  21966883.587    21966886.467    14144085.856 9 -22991826.678 7
  21266729.895    21266733.860    77487084.040 9-123875925.557 8
 90  2 24  9 30 44.0800000  0  4G 3G12G19G13
  20457372.692    20457375.202    21349105.938 9 -50496200.086 7
  22236422.516    22236427.239    58469859.113 9 -69483555.946 9
  21969552.678    21969555.746    14158112.690 9 -22980896.695 8
  21269711.544    21269714.006    77502752.755 9-123863716.183 8
 90  2 24  9 30 59.0800000  0  4G 3G12G19G13
  20454794.552    20454797.301    21335558.305 9 -50506756.693 9
  22245316.251    22245322.147    58516594.028 9 -69447139.155 8
  21972242.084    21972244.989    14172245.215 9 -22969884.346 9
  21272695.082    21272699.276    77518436.099 9-123851495.411 9
 90  2 24  9 31 14.0800000  0  4G 3G12G19G13
  20452220.769    20452223.817    21322035.040 9 -50517294.298 8
  22254216.455    22254220.246    58563361.243 9 -69410697.184 8
  21974951.797    21974955.193    14186483.337 9 -22958789.716 8
  21275681.897    21275685.604    77534134.347 9-123839263.027 8
 90  2 24  9 31 29.0800000  0  4G 3G12G19G13
  20449652.498    20449656.076    21308535.885 9 -50527813.107 8
  22263122.295    22263125.859    58610160.092 9 -69374230.555 8
  21977679.653    21977685.051    14200826.337 8 -22947613.370 7
  21278672.591    21278676.798    77549847.243 9-123827019.226 8
 90  2 24  9 31 44.0800000  0  4G 3G12G19G13
  20447086.970    20447090.610    21295060.940 9 -50538313.059 9
  22272032.114    22272039.140    58656990.240 9 -69337739.567 8
  21980430.298    21980433.808    14215274.101 9 -22936355.387 8
  21281665.902    21281669.280    77565575.058 9-123814763.780 8
 90  2 24  9 31 59.0800000  0  4G 3G12G19G13
  20444526.573    20444531.479    21281610.699 9 -50548793.765 8
  22280949.546    22280955.901    58703851.488 9 -69301224.344 8
  21983199.464    21983203.227    14229826.538 9 -22925015.831 8
  21284661.374    21284665.138    77581318.305 9-123802496.329 8
 90  2 24  9 32 14.0800000  0  4G 3G12G19G13
  20441973.384    20441976.416    21268185.200 8 -50559255.190 7
  22289872.578    22289879.140    58750743.286 8 -69264685.315 9
  21985987.600    21985991.534    14244483.663 9 -22913594.694 7
  21287659.507    21287663.658    77597076.649 9-123790217.101 8
 90  2 24  9 32 29.0800000  0  4G 3G12G19G13
  20439423.902    20439426.773    21254783.882 9 -50569697.772 7
  22298801.794    22298807.619    58797664.937 9 -69228123.006 8
  21988797.647    21988800.437    14259244.690 9 -22902092.623 8
  21290661.791    21290665.784    77612849.728 9-123777926.392 7
 90  2 24  9 32 44.0800000  0  4G 3G12G19G13
  20436877.785    20436880.980    21241406.713 8 -50580121.554 9
  22307736.403    22307742.071    58844615.996 8 -69191537.786 8
  21991625.952    21991629.452    14274109.167 7 -22890509.910 8
  21293667.207    21293670.657    77628637.723 9-123765624.070 8
 90  2 24  9 32 59.0800000  0  4G 3G12G19G13
  20434336.412    20434340.552    21228054.274 9 -50590526.060 8
  22316677.238    22316681.253    58891596.566 9 -69154929.572 9
  21994473.609    21994478.436    14289077.484 8 -22878846.315 8
  21296674.228    21296677.076    77644441.042 9-123753309.797 8
 90  2 24  9 33 14.0800000  0  4G 3G12G19G13
  20431801.330    20431804.125    21214726.431 9 -50600911.376 8
  22325622.694    22325627.925    58938606.034 9 -69118298.833 7
  21997342.083    21997345.901    14304149.013 9 -22867102.273 8
  21299684.151    21299687.214    77660259.718 9-123740983.558 7
 90  2 24  9 33 29.0800000  0  4G 3G12G19G13
  20429268.975    20429271.632    21201423.167 9 -50611277.561 8
  22334573.180    22334578.059    58985643.974 9 -69081645.926 9
  22000228.959    22000233.822    14319323.533 9 -22855277.996 8
  21302696.422    21302700.931    77676093.826 9-123728645.308 8
 90  2 24  9 33 44.0800000  0  4G 3G12G19G13
  20426742.437    20426744.796    21188144.651 9 -50621624.452 8
  22343530.019    22343534.019    59032710.036 9 -69044971.082 8
  22003136.131    22003141.100    14334600.996 9 -22843373.495 8
  21305712.356    21305715.905    77691943.579 9-123716294.847 8
 90  2 24  9 33 59.0800000  0  4G 3G12G19G13
  20424220.331    20424223.131    21174890.886 9 -50631952.049 8
  22352491.221    22352495.736    59079803.952 8 -69008274.549 8
  22006063.738    22006067.646    14349980.925 8 -22831389.152 8
  21308732.026    21308735.890    77707808.979 9-123703932.207 8
 90  2 24  9 34 14.0800000  0  4G 3G12G19G13
  20421703.291    20421705.575    21161661.970 8 -50642260.290 8
  22361458.593    22361463.573    59126925.374 9 -68971556.582 8
  22009009.590    22009013.797    14365463.166 9 -22819325.075 8
  21311754.069    21311757.391    77723690.000 9-123691557.381 8
 90  2 24  9 34 29.0800000  0  4G 3G12G19G13
  20419190.271    20419192.394    21148457.955 9 -50652549.134 8
  22370431.085    22370435.514    59174073.633 9 -68934817.692 8
  22011974.744    22011979.685    14381047.441 8 -22807181.492 8
  21314778.833    21314781.867    77739586.691 8-123679170.366 8
 90  2 24  9 34 44.0800000  0  4G 3G12G19G13
  20416682.303    20416685.452    21135278.951 9 -50662818.492 8
  22379407.307    22379412.408    59221248.437 9 -68898058.119 8
  22014959.067    22014964.507    14396733.613 8 -22794958.533 8
  21317806.543    21317809.720    77755499.237 9-123666770.988 7
 90  2 24  9 34 59.0800000  0  4G 3G12G19G13
  20414179.743    20414181.423    21122124.515 8 -50673068.698 8
  22388389.708    22388394.474    59268449.015 9 -68861278.469 9
  22017965.168    22017968.535    14412521.124 8 -22782656.595 7
  21320836.757    21320842.153    77771427.255 8-123654359.555 8
 90  2 24  9 35 14.0800000  0  4G 3G12G19G13
  20411680.496    20411684.180    21108994.916 9 -50683299.547 7
  22397376.346    22397381.327    59315675.128 9 -68824478.910 8
  22020988.564    22020992.283    14428409.843 8 -22770275.767 8
  21323871.795    21323875.759    77787371.212 9-123641935.702 8
 90  2 24  9 35 29.0800000  0  4G 3G12G19G13
  20409187.102    20409190.656    21095890.067 9 -50693511.117 8
  22406368.665    22406374.103    59362926.273 9 -68787659.846 8
  22024029.710    22024035.480    14444399.222 8 -22757816.532 8
  21326909.149    21326912.513    77803331.292 9-123629499.277 7
 90  2 24  9 35 44.0800000  0  4G 3G12G19G13
  20406698.350    20406700.541    21082810.059 9 -50703703.330 8
  22415365.148    22415369.319    59410202.053 9 -68750821.611 9
  22027093.624    22027097.882    14460488.944 8 -22745279.093 8
  21329949.768    21329953.074    77819307.136 9-123617050.572 8
 90  2 24  9 35 59.0800000  0  4G 3G12G19G13
  20404213.856    20404217.417    21069754.794 9 -50713876.270 8
  22424365.014    22424371.483    59457501.862 9 -68713964.662 9
  22030174.294    22030177.780    14476678.849 8 -22732663.597 8
  21332992.216    21332996.496    77835298.717 9-123604589.615 8
 90  2 24  9 36 14.0800000  0  4G 3G12G19G13
  20401734.563    20401737.284    21056724.711 9 -50724029.584 8
  22433369.438    22433376.329    59504825.632 9 -68677089.036 9
  22033272.784    22033277.921    14492968.987 8 -22719970.011 7
  21336038.615    21336042.580    77851306.643 9-123592115.916 8
 90  2 24  9 36 29.0800000  0  4G 3G12G19G13
  20399258.651    20399262.952    21043719.764 9 -50734163.302 8
  22442380.702    22442385.775    59552172.983 9 -68640195.032 9
  22036391.842    22036396.396    14509358.975 9 -22707198.601 7
  21339087.116    21339092.155    77867331.074 9-123579629.351 8
 90  2 24  9 36 44.0800000  0  4G 3G12G19G13
  20396789.396    20396792.012    21030739.688 9 -50744277.647 8
  22451395.307    22451399.708    59599543.092 9 -68603283.276 8
  22039529.276    22039532.496    14525848.292 8 -22694349.790 7
  21342140.127    21342144.276    77883371.487 8-123567130.336 8
 90  2 24  9 36 59.0800000  0  4G 3G12G19G13
  20394323.825    20394326.664    21017784.642 9 -50754372.492 8
  22460413.218    22460418.700    59646935.721 9 -68566353.980 9
  22042684.622    22042691.286    14542436.547 8 -22681423.889 8
  21345194.967    21345199.662    77899428.011 9-123554618.755 8
 90  2 24  9 37 14.0800000  0  3G 3G19G13
  20391863.460    20391865.980    21004854.920 9 -50764447.606 9
  22045863.362    22045867.067    14559123.651 8 -22668420.963 8
  21348253.142    21348258.816    77915500.895 9-123542094.444 7
 90  2 24  9 37 29.0800000  0  3G 3G19G13
  20389408.289    20389410.445    20991950.345 9 -50774503.119 8
  22049056.569    22049061.160    14575909.435 9 -22655341.155 9
  21351316.355    21351320.104    77931590.176 9-123529557.360 9
 90  2 24  9 37 44.0800000  0  4G 3G16G19G13
  20386957.504    20386960.112    20979070.954 9 -50784539.015 7
                  22489085.047   -17176337.174 9
  22052270.074    22052272.962    14592793.278 8 -22642184.923 8
  21354379.772    21354385.820    77947695.885 9-123517007.466 8
 90  2 24  9 37 59.0800000  0  4G 3G16G19G13
  20384511.476    20384514.648    20966216.666 9 -50794555.335 8
                  22498074.725   -17256292.962 9
  22055500.146    22055505.377    14609774.915 8 -22628952.509 8
  21357447.657    21357452.995    77963818.312 8-123504444.544 8
 90  2 24  9 38 14.0800000  0  4G 3G16G19G13
  20382069.190    20382071.445    20953387.497 9 -50804552.093 8
                  22507108.136   -17335230.737 9
  22058752.397    22058755.567    14626854.197 8 -22615643.997 8
  21360519.225    21360524.957    77979957.354 9-123491868.677 8
 90  2 24  9 38 29.0800000  0  4G 3G16G19G13
  20379632.642    20379635.393    20940583.981 8 -50814528.864 8
                  22515227.597   -17458339.466 9
  22062020.377    22062024.867    14644031.181 8 -22602259.337 7
  21363594.593    21363597.978    77996113.032 7-123479279.844 8
 90  2 24  9 38 44.0800000  0  4G 3G16G19G13
  20377202.228    20377203.905    20927805.912 9 -50824485.792 9
                  22543006.447   -17410147.132 9
  22065306.226    22065310.354    14661305.359 9 -22588798.930 8
  21366671.483    21366676.107    78012285.709 9-123466677.753 8
 90  2 24  9 38 59.0800000  0  4G 3G16G19G13
  20374775.906    20374778.785    20915053.390 9 -50834422.812 8
                  22572775.949   -17361849.717 9
  22068612.011    22068616.943    14678676.436 8 -22575263.043 7
  21369752.933    21369757.026    78028475.205 9-123454062.561 9
 90  2 24  9 39 14.0800000  0  4G 3G16G19G13
  20372353.747    20372355.211    20902326.227 9 -50844340.091 8
                  22602313.255   -17313529.610 9
  22071935.464    22071938.901    14696144.017 8 -22561651.965 7
  21372836.728    21372839.642    78044681.492 9-123441434.309 9
 90  2 24  9 39 29.0800000  0  4G 3G16G19G13
  20369936.144    20369939.352    20889624.408 8 -50854237.621 9
                  22632884.730   -17265186.814 9
  22075278.682    22075281.787    14713707.469 9 -22547966.160 7
  21375924.051    21375928.094    78060904.777 8-123428792.791 9
 90  2 24  9 39 44.0800000  0  4G 3G16G19G13
  20367523.357    20367526.678    20876948.095 8 -50864115.273 8
                  22662225.385   -17216821.326 9
  22078639.511    22078641.687    14731366.783 8 -22534205.672 7
  21379013.427    21379017.663    78077145.025 9-123416138.046 8
 90  2 24  9 39 59.0800000  0  4G 3G16G19G13
  20365117.638    20365119.773    20864297.348 8 -50873973.001 8
                  22692277.168   -17168433.147 9
  22082018.298    22082021.423    14749121.892 8 -22520370.525 7
  21382106.903    21382111.304    78093402.164 9-123403470.163 8
 90  2 24  9 40 14.0800000  0  4G 3G16G19G13
  20362714.782    20362717.403    20851672.285 9 -50883810.707 8
                  22722243.965   -17120022.278 9
  22085415.097    22085418.330    14766972.254 9 -22506461.183 8
  21385204.593    21385208.779    78109676.697 9-123390788.703 8
 90  2 24  9 40 29.0800000  0  4G 3G16G19G13
  20360316.104    20360320.299    20839073.003 9 -50893628.342 8
                  22752271.937   -17071588.718 9
  22088830.007    22088833.180    14784917.853 9 -22492477.616 7
  21388304.923    21388308.822    78125968.419 9-123378093.867 8
 90  2 24  9 40 44.0800000  0  4G 3G16G19G13
  20357923.893    20357926.842    20826499.511 9 -50903425.865 8
                  22782015.024   -17023132.468 9
  22092263.094    22092265.985    14802958.109 9 -22478420.268 8
  21391408.521    21391412.122    78142277.524 9-123365385.485 8
 90  2 24  9 40 59.0800000  0  4G 3G16G19G13
  20355535.660    20355538.982    20813951.687 9 -50913203.386 8
                  22811494.364   -16974653.526 9
  22095714.525    22095716.656    14821092.770 8 -22464289.382 7
  21394516.020    21394519.921    78158603.907 9-123352663.636 8
 90  2 24  9 41 14.0800000  0  4G 3G16G19G13
  20353152.865    20353156.173    20801429.726 9 -50922960.753 8
                  22841392.080   -16926151.894 9
  22099182.154    22099185.600    14839321.594 8 -22450085.092 7
  21397626.517    21397629.787    78174947.831 9-123339928.111 8
 90  2 24  9 41 29.0800000  0  4G 3G16G19G13
  20350774.963    20350777.326    20788933.516 9 -50932698.068 8
                  22871644.088   -16877627.572 9
  22102669.051    22102673.254    14857644.187 9 -22435807.767 6
  21400739.267    21400743.690    78191309.197 9-123327179.013 7
 90  2 24  9 41 44.0800000  0  4G 3G16G19G13
  20348401.842    20348404.934    20776463.302 8 -50942415.094 8
                  22901459.382   -16829080.558 9
  22106172.950    22106175.662    14876060.219 9 -22421457.606 7
  21403855.616    21403859.552    78207688.399 9-123314416.012 7
 90  2 24  9 41 59.0800000  0  4G 3G16G19G13
  20346033.298    20346036.348    20764019.046 8 -50952111.916 8
                  22931458.375   -16780510.854 9
  22109697.068    22109699.426    14894569.457 9 -22407034.842 7
  21406974.998    21406980.287    78224085.380 9-123301639.157 8
 90  2 24  9 42 14.0800000  0  4G 3G16G19G13
  20343670.565    20343673.757    20751600.493 9 -50961788.715 8
                  22689710.010   -16731918.459 9
  22113235.223    22113239.441    14913171.251 8 -22392539.969 7
  21410100.026    21410104.069    78240499.866 9-123288848.667 9
 90  2 24  9 42 29.0800000  0  4G 3G16G19G13
  20341313.211    20341315.530    20739207.762 8 -50971445.382 9
                  22820292.955   -16683303.373 9
  22116791.893    22116795.913    14931865.368 8 -22377973.122 7
  21413225.833    21413229.997    78256931.884 9-123276044.499 8
 90  2 24  9 42 44.0800000  0  4G 3G16G19G13
  20338959.435    20338962.299    20726840.874 9 -50981081.929 8
                  22951757.370   -16634665.597 9
  22120368.103    22120370.728    14950651.706 8 -22363334.406 7
  21416356.721    21416360.514    78273381.552 9-123263226.573 8
 90  2 24  9 42 59.0800000  0  4G 3G16G19G13
  20336610.495    20336614.590    20714499.907 9 -50990698.251 8
                  22868298.370   -16595865.703 9
  22123960.705    22123963.458    14969529.716 9 -22348624.288 6
  21419489.969    21419494.098    78289849.022 9-123250394.807 8
 90  2 24  9 43 14.0800000  0  4G 3G16G19G13
  20334266.621    20334270.501    20702184.941 9 -51000294.337 9
                  22751396.147   -16552649.746 9
  22127570.825    22127573.540    14988499.145 9 -22333842.923 7
  21422626.965    21422630.974    78306334.280 9-123237549.155 8
 90  2 24  9 43 29.0800000  0  4G 3G16G19G13
  20331926.924    20331931.620    20689896.111 9 -51009870.051 8
                  22925110.455   -16502198.949 9
  22131197.915    22131201.347    15007559.944 8 -22318990.369 8
  21425767.869    21425772.715    78322837.533 9-123224689.491 7
 90  2 24  9 43 44.0800000  0  4G 3G16G19G13
  20329595.386    20329598.564    20677633.409 8 -51019425.396 9
                  22798314.005   -16460153.138 9
  22134842.324    22134845.379    15026711.726 9 -22304066.914 7
  21428911.900    21428916.759    78339358.960 8-123211815.662 7
 90  2 24  9 43 59.0800000  0  3G 3G19G13
  20327266.650    20327269.371    20665396.997 9 -51028960.274 8
  22138503.654    22138506.321    15045954.021 9 -22289072.929 7
  21432058.563    21432063.271    78355898.514 9-123198927.706 9
 90  2 24  9 44 14.0800000  0  3G 3G19G13
  20324942.866    20324944.885    20653186.481 9 -51038474.955 9
  22142182.683    22142186.482    15065286.027 9 -22274009.044 7
  21435210.098    21435213.447    78372455.583 9-123186026.111 9
 90  2 24  9 44 29.0800000  0  3G 3G19G13
  20322623.672    20322628.213    20641002.397 9 -51047969.051 8
  22145878.411    22145881.613    15084708.196 8 -22258874.885 7
  21438364.996    21438368.123    78389031.187 9-123173110.064 8
 90  2 24  9 44 44.0800000  0  3G 3G19G13
  20320310.065    20320314.067    20628844.606 8 -51057442.654 8
  22149591.891    22149595.353    15104220.283 9 -22243670.665 8
  21441521.868    21441526.205    78405625.236 9-123160179.659 8
 90  2 24  9 44 59.0800000  0  3G 3G19G13
  20318002.662    20318005.095    20616713.215 9 -51066895.678 9
  22153321.610    22153324.201    15123821.664 9 -22228396.878 7
  21444683.162    21444687.412    78422237.482 9-123147235.048 8
 90  2 24  9 45 14.0800000  0  3G 3G19G13
  20315698.773    20315701.930    20604608.314 5 -51076328.065 6
  22157068.871    22157073.325    15143512.024 6 -22213053.739 3
  21447848.155    21447853.189    78438868.156 6-123134276.073 7
 90  2 24  9 45 29.0800000  0  4G 3G16G19G13
  20313400.220    20313403.887    20592529.961 9 -51085739.753 8
                  22261097.386   -19833538.337 9
  22160831.678    22160834.354    15163291.111 9 -22197641.482 6
  21451016.487    21451019.959    78455517.513 9-123121302.562 8
 90  2 24  9 45 44.0800000  0  4G 3G16G19G13
  20311106.737    20311111.141    20580478.183 9 -51095130.762 8
                  22250358.284   -19890141.829 8
  22164612.534    22164616.554    15183158.694 9 -22182160.246 6
  21454188.720    21454191.524    78472185.447 9-123108314.573 8
 90  2 24  9 45 59.0800000  0  4G 3G16G19G13
  20308817.920    20308821.959    20568453.247 9 -51104500.847 8
  22239593.040    22239596.236   -19946718.491 9  25384914.164 9
  22168410.578    22168412.766    15203114.376 9 -22166610.373 6
  21457363.284    21457368.205    78488872.233 9-123095311.890 9
 90  2 24  9 46 14.0800000  0  4G 3G16G19G13
  20306534.484    20306538.940    20556455.061 8 -51113850.070 8
  22228831.092    22228835.151   -20003268.317 8  25340849.391 9
  22172224.570    22172227.071    15223157.714 9 -22150992.195 6
  21460541.777    21460545.867    78505577.932 9-123082294.477 8
 90  2 24  9 46 29.0800000  0  4G 3G16G19G13
  20304256.957    20304260.778    20544483.758 9 -51123178.373 8
  22218074.815    22218079.265   -20059790.931 9  25296805.821 9
  22176055.677    22176058.541    15243288.869 9 -22135305.600 7
  21463724.824    21463728.663    78522302.622 8-123069262.253 9
 90  2 24  9 46 44.0800000  0  4G 3G16G19G13
  20301984.797    20301987.538    20532539.517 9 -51132485.556 8
  22207322.812    22207328.359   -20116286.061 9  25252783.666 9
  22179903.590    22179907.545    15263507.285 9 -22119550.992 7
  21466910.307    21466915.518    78539046.314 8-123056215.243 8
 90  2 24  9 46 59.0800000  0  4G 3G16G19G13
  20299716.786    20299719.654    20520622.142 9 -51141771.794 8
  22196578.068    22196583.176   -20172753.438 8  25208783.158 9
  22183765.735    22183769.564    15283812.498 9 -22103728.790 7
  21470100.277    21470105.297    78555809.013 9-123043153.399 9
 90  2 24  9 47 14.0800000  0  4G 3G16G19G13
  20297454.200    20297456.709    20508731.864 9 -51151036.962 8
  22185839.487    22185843.908   -20229192.514 8  25164804.687 9
  22187647.075    22187650.110    15304204.411 9 -22087838.991 6
  21473294.504    21473298.990    78572590.951 9-123030076.581 7
 90  2 24  9 47 29.0800000  0  4G 3G16G19G13
  20295196.221    20295199.813    20496868.800 9 -51160280.900 8
  22175103.653    22175108.818   -20285602.805 9  25120848.660 9
  22191544.085    22191547.464    15324682.632 9 -22071881.935 7
  21476492.507    21476495.720    78589392.377 9-123016984.573 7
 90  2 24  9 47 44.0800000  0  4G 3G16G19G13
  20292944.601    20292948.405    20485032.881 8 -51169503.694 8
  22164375.956    22164380.635   -20341984.031 9  25076915.256 8
  22195457.162    22195460.010    15345246.814 9 -22055857.887 7
  21479693.198    21479695.769    78606213.147 9-123003877.474 8
 90  2 24  9 47 59.0800000  0  4G 3G16G19G13
  20290697.767    20290699.861    20473224.134 9 -51178705.323 7
  22153652.852    22153656.134   -20398336.083 9  25033004.584 8
  22199386.021    22199389.618    15365896.395 9 -22039767.333 7
  21482897.924    21482900.060    78623053.236 9-122990755.318 8
 90  2 24  9 48 14.0800000  0  4G 3G16G19G13
  20288455.548    20288457.715    20461442.379 8 -51187885.905 7
  22142934.552    22142938.960   -20454658.634 9  24989116.899 9
  22203332.528    22203335.933    15386631.132 9 -22023610.392 7
  21486105.105    21486108.438    78639912.717 8-122977618.076 7
 90  2 24  9 48 29.0800000  0  4G 3G16G19G13
  20286218.704    20286221.692    20449688.076 8 -51197045.108 8
  22132221.928    22132226.125   -20510951.233 8  24945252.549 8
  22207293.877    22207298.910    15407451.176 9 -22007387.007 8
  21489316.777    21489321.080    78656791.831 7-122964465.542 7
 90  2 24  9 48 44.0800000  0  4G 3G16G19G13
  20283986.574    20283991.055    20437961.333 9 -51206182.837 6
  22121515.032    22121519.549   -20567213.252 9  24901412.062 8
  22211272.678    22211275.840    15428356.059 9 -21991097.488 8
  21492532.759    21492536.178    78673690.808 9-122951297.532 8
 90  2 24  9 48 59.0800000  0  4G 3G16G19G13
  20281761.078    20281763.112    20426261.957 9 -51215299.210 7
  22110814.742    22110819.869   -20623444.524 8  24857595.522 8
  22215267.248    22215269.859    15449345.217 9 -21974742.317 7
  21495752.233    21495755.840    78690609.463 9-122938114.188 8
 90  2 24  9 49 14.0800000  0  4G 3G16G19G13
  20279539.149    20279543.969    20414590.073 9 -51224394.202 8
  22100120.400    22100124.731   -20679644.703 9  24813803.180 8
  22219276.896    22219280.302    15470418.196 8 -21958321.810 7
  21498975.307    21498979.553    78707547.973 8-122924915.327 8
 90  2 24  9 49 29.0800000  0  4G 3G16G19G13
  20277323.573    20277327.012    20402945.804 9 -51233467.669 9
  22089431.648    22089435.449   -20735813.578 9  24770035.243 7
  22223301.709    22223305.546    15491574.684 9 -21941836.246 7
  21502202.706    21502206.496    78724506.322 9-122911701.020 7
 90  2 24  9 49 44.0800000  0  4G 3G16G19G13
  20275113.254    20275116.678    20391329.028 9 -51242519.699 8
  22078749.063    22078753.246   -20791950.684 9  24726292.065 8
  22227345.147    22227348.375    15512814.622 9 -21925285.649 8
  21505434.206    21505437.829    78741484.603 9-122898471.212 8
 90  2 24  9 49 59.0800000  0  4G 3G16G19G13
  20272908.236    20272911.019    20379739.917 9 -51251550.181 8
  22068073.404    22068077.472   -20848055.638 9  24682573.931 8
  22231401.925    22231406.445    15534137.317 9 -21908670.590 7
  21508668.966    21508672.914    78758482.743 9-122885225.915 7
 90  2 24  9 50 14.0800000  0  4G 3G16G19G13
  20270708.081    20270711.553    20368178.502 9 -51260559.080 9
  22057403.479    22057406.908   -20904128.066 9  24638881.144 8
  22235474.521    22235479.493    15555542.576 7 -21891991.179 7
  21511906.518    21511910.940    78775500.760 9-122871965.118 8
 90  2 24  9 50 29.0800000  0  4G 3G16G19G13
  20268513.833    20268516.359    20356645.099 9 -51269546.142 7
  22046739.606    22046742.315   -20960167.389 9  24595214.163 8
  22239563.982    22239566.720    15577030.446 8 -21875247.376 7
  21515149.225    21515152.663    78792538.978 9-122858688.595 8
 90  2 24  9 50 44.0800000  0  4G 3G16G19G13
  20266323.611    20266326.360    20345139.516 9 -51278511.532 8
  22036082.200    22036084.523   -21016173.645 9  24551572.943 8
  22243668.573    22243672.931    15598600.221 8 -21858439.770 7
  21518395.653    21518399.446    78809597.525 9-122845396.233 8
 90  2 24  9 50 59.0800000  0  4G 3G16G19G13
  20264140.608    20264141.752    20333661.741 9 -51287455.226 7
  22025431.320    22025433.924   -21072146.315 9  24507957.876 7
  22247787.547    22247792.595    15620251.610 9 -21841568.574 7
  21521645.154    21521650.091    78826676.267 9-122832088.134 7
 90  2 24  9 51 14.0800000  0  4G 3G16G19G13
  20261961.597    20261964.427    20322211.925 9 -51296377.165 8
  22014785.376    22014789.459   -21128084.929 9  24464369.355 7
  22251924.690    22251928.624    15641984.293 8 -21824634.045 7
  21524899.326    21524902.745    78843775.653 9-122818763.950 8
 90  2 24  9 51 29.0800000  0  4G 3G16G19G13
  20259788.040    20259791.371    20310790.429 9 -51305277.020 7
  22004147.460    22004150.098   -21183989.175 9  24420807.617 7
  22256075.521    22256078.328    15663797.728 8 -21807636.570 7
  21528157.410    21528162.136    78860895.492 9-122805423.823 8
 90  2 24  9 51 44.0800000  0  4G 3G16G19G13
  20257619.766    20257623.400    20299396.869 9 -51314155.122 8
  21993516.222    21993519.303   -21239858.868 9  24377272.822 8
  22260240.375    22260245.989    15685691.729 8 -21790576.328 7
  21531418.961    21531422.644    78878035.641 8-122792067.875 8
 90  2 24  9 51 59.0800000  0  4G 3G16G19G13
  20255455.732    20255459.249    20288031.350 9 -51323011.380 8
  21982891.198    21982894.823   -21295693.608 9  24333765.247 9
  22264423.161    22264427.492    15707666.044 8 -21773453.503 7
  21534684.460    21534688.990    78895196.300 9-122778695.936 8
 90  2 24  9 52 14.0800000  0  4G 3G16G19G13
  20253297.896    20253301.950    20276694.093 9 -51331845.603 8
  21972271.584    21972276.649   -21351493.039 9  24290285.181 8
  22268619.363    22268624.496    15729720.308 8 -21756268.361 8
  21537954.773    21537958.278    78912377.843 9-122765307.730 7
 90  2 24  9 52 29.0800000  0  4G 3G16G19G13
  20251146.487    20251150.329    20265385.269 9 -51340657.669 8
  21961660.998    21961665.115   -21407256.727 9  24246832.962 9
  22272831.340    22272835.422    15751854.507 8 -21739020.947 8
  21541228.355    21541231.037    78929580.193 9-122751903.302 7
 90  2 24  9 52 44.0800000  0  4G 3G16G19G13
  20249000.562    20249004.251    20254104.755 9 -51349447.670 8
  21951056.098    21951060.476   -21462984.425 9  24203408.796 8
  22277058.095    22277063.504    15774067.682 7 -21721711.995 8
  21544505.215    21544508.620    78946803.378 9-122738482.654 8
 90  2 24  9 52 59.0800000  0  4G 3G16G19G13
  20246859.466    20246863.410    20242852.784 9 -51358215.436 8
  21940458.047    21940462.698   -21518675.467 9  24160013.200 8
  22281300.963    22281304.910    15796359.662 8 -21704341.635 7
  21547786.328    21547791.202    78964047.767 9-122725045.471 8
 90  2 24  9 53 14.0800000  0  4G 3G16G19G13
  20244723.094    20244726.697    20231629.658 9 -51366960.736 8
  21929867.952    21929872.226   -21574329.315 9  24116646.586 9
  22285559.001    22285562.804    15818730.720 8 -21686909.664 7
  21551071.430    21551077.053    78981313.390 8-122711591.750 8
 90  2 24  9 53 29.0800000  0  4G 3G16G19G13
  20242593.464    20242596.979    20220435.105 9 -51375683.777 8
  21919284.564    21919288.633   -21629945.961 9  24073308.945 9
  22289829.948    22289834.137    15841180.305 6 -21669416.508 7
  21554360.944    21554367.080    78998600.139 9-122698121.553 8
 90  2 24  9 53 44.0800000  0  4G 3G16G19G13
  20240468.374    20240471.618    20209269.314 8 -51384384.392 7
  21908706.985    21908713.376   -21685525.056 9  24030000.581 8
  22294114.885    22294119.725    15863707.724 7 -21651862.693 8
  21557654.579    21557659.176    79015908.126 9-122684634.822 8
 90  2 24  9 53 59.0800000  0  4G 3G16G19G13
  20238349.417    20238352.059    20198132.316 9 -51393062.560 8
  21898137.796    21898143.424   -21741066.228 9  23986721.774 8
  22298418.516    22298422.654    15886312.717 8 -21634248.420 7
  21560953.156    21560957.237    79033237.280 9-122671131.585 7
 90  2 24  9 54 14.0800000  0  4G 3G16G19G13
  20236235.809    20236238.699    20187024.116 9 -51401718.298 8
  21887576.825    21887581.075   -21796569.101 9  23943472.810 8
  22302734.312    22302740.083    15908994.703 8 -21616574.138 7
  21564254.051    21564259.540    79050587.807 9-122657611.711 8
 90  2 24  9 54 29.0800000  0  4G 3G16G19G13
  20234127.430    20234130.449    20175944.781 9 -51410351.545 8
  21877022.976    21877025.976   -21852033.610 8  23900253.743 8
  22307066.820    22307070.449    15931753.449 7 -21598840.077 9
  21567559.699    21567563.474    79067959.711 9-122644075.174 7
 90  2 24  9 54 44.0800000  0  4G 3G16G19G13
  20232023.719    20232026.862    20164894.026 9 -51418962.519 7
  21866475.236    21866478.823   -21907459.476 9  23857064.775 9
  22311410.834    22311415.924    15954588.352 8 -21581046.678 8
  21570869.660    21570874.304    79085352.705 9-122630522.198 8
 90  2 24  9 54 59.0800000  0  4G 3G16G19G13
  20229926.571    20229929.118    20153871.941 9 -51427551.159 8
  21855935.013    21855938.796   -21962846.096 9  23813906.392 9
  22315771.458    22315775.315    15977499.236 8 -21563194.051 7
  21574183.653    21574188.027    79102767.026 9-122616952.606 8
 90  2 24  9 55 14.0800000  0  4G 3G16G19G13
  20227834.877    20227836.806    20142879.138 9 -51436116.982 9
  21845402.275    21845406.820   -22018193.120 9  23770778.869 9
  22320144.857    22320148.521    16000486.155 8 -21545282.174 7
  21577501.781    21577505.986    79120203.081 9-122603366.079 9
 90  2 24  9 55 29.0800000  0  4G 3G16G19G13
  20225748.189    20225751.528    20131915.402 9 -51444660.132 7
  21834878.145    21834881.847   -22073499.972 8  23727682.648 9
  22324532.539    22324537.463    16023548.451 7 -21527311.569 7
  21580823.490    21580827.719    79137660.898 9-122589762.584 8
 90  2 24  9 55 44.0800000  0  4G 3G16G19G13
  20223667.306    20223670.394    20120980.924 9 -51453180.505 9
  21824361.809    21824365.573   -22128766.644 9  23684617.746 9
  22328936.622    22328941.565    16046685.871 7 -21509282.439 8
  21584150.714    21584154.091    79155140.649 9-122576142.018 8
 90  2 24  9 55 59.0800000  0  4G 3G16G19G13
  20221593.246    20221594.248    20110075.588 9 -51461678.171 8
  21813851.799    21813856.378   -22183992.664 9  23641584.498 9
  22333354.457    22333358.657    16069897.985 8 -21491195.101 8
  21587481.053    21587484.873    79172642.046 9-122562504.580 8
 90  2 24  9 56 14.0800000  0  4G 3G16G19G13
  20219523.660    20219526.753    20099199.701 9 -51470152.892 8
  21803350.240    21803355.587   -22239177.504 8  23598583.353 9
  22337784.939    22337788.974    16093184.714 9 -21473049.605 7
  21590814.681    21590819.773    79190165.433 9-122548849.996 8
 90  2 24  9 56 29.0800000  0  4G 3G16G19G13
  20217459.179    20217461.867    20088353.536 9 -51478604.452 8
  21792856.784    21792862.179   -22294320.756 9  23555614.614 9
  22342229.802    22342234.198    16116545.747 9 -21454846.227 8
  21594153.489    21594159.073    79207710.832 9-122535178.256 8
 90  2 24  9 56 44.0800000  0  4G 3G16G19G13
  20215400.571    20215403.816    20077536.942 9 -51487032.971 8
  21782371.443    21782376.460   -22349422.063 8  23512678.561 9
  22346689.360    22346694.866    16139980.712 8 -21436585.237 9
  21597497.017    21597501.565    79225278.327 9-122521489.301 8
 90  2 24  9 56 59.0800000  0  4G 3G16G19G13
  20213348.835    20213350.836    20066749.951 8 -51495438.401 8
  21771894.548    21771899.289   -22404481.344 9  23469775.251 9
  22351163.142    22351167.627    16163489.060 9 -21418267.046 8
  21600844.251    21600848.332    79242868.092 9-122507783.004 8
 90  2 24  9 57 14.0800000  0  4G 3G16G19G13
  20211301.827    20211304.622    20055992.559 9 -51503820.782 7
  21761425.962    21761429.253   -22459497.975 9  23426905.168 8
  22355649.972    22355655.592    16187070.332 8 -21399892.043 8
  21604195.761    21604200.380    79260480.298 9-122494059.215 8
 90  2 24  9 57 29.0800000  0  4G 3G16G19G13
  20209258.899    20209263.008    20045264.926 9 -51512179.975 8
  21750963.615    21750968.651   -22514471.684 9  23384068.532 9
  22360153.005    22360154.844    16210724.331 8 -21381460.372 7
  21607551.584    21607555.341    79278114.780 9-122480318.076 8
 90  2 24  9 57 44.0800000  0  4G 3G16G19G13
  20207224.308    20207226.524    20034567.161 9 -51520515.914 8
  21740510.922    21740515.787   -22569402.157 9  23341265.607 9
  22364667.809    22364670.378    16234450.550 9 -21362972.396 8
  21610912.467    21610914.711    79295771.926 8-122466559.279 8
 90  2 24  9 57 59.0800000  0  4G 3G16G19G13
  20205193.894    20205197.337    20023899.306 9 -51528828.521 8
  21730067.124    21730071.040   -22624288.953 9  23298496.693 9
  22369196.914    22369199.097    16258248.945 9 -21344428.212 8
  21614276.184    21614279.828    79313451.616 9-122452782.904 8
 90  2 24  9 58 14.0800000  0  4G 3G16G19G13
  20203168.463    20203173.471    20013261.662 9 -51537117.603 8
  21719630.867    21719634.421   -22679131.557 9  23255762.225 8
  22373737.273    22373741.405    16282119.249 9 -21325827.994 7
  21617644.112    21617648.781    79331154.013 9-122438988.838 8
 90  2 24  9 58 29.0800000  0  4G 3G16G19G13
  20201150.488    20201153.626    20002654.165 9 -51545383.178 7
  21709203.468    21709206.931   -22733929.912 9  23213062.219 8
  22378294.661    22378298.782    16306060.807 8 -21307172.266 8
  21621018.332    21621022.086    79348879.091 9-122425177.094 8
 90  2 24  9 58 44.0800000  0  4G 3G16G19G13
  20199138.050    20199139.922    19992076.709 9 -51553625.351 7
  21698783.061    21698787.988   -22788683.678 9  23170396.972 9
  22382864.216    22382868.382    16330073.129 8 -21288461.372 8
  21624394.841    21624399.089    79366627.004 9-122411347.573 8
 90  2 24  9 58 59.0800000  0  4G 3G16G19G13
  20197131.844    20197133.769    19981529.665 9 -51561843.821 7
  21688372.446    21688377.231   -22843392.342 9  23127766.864 9
  22387446.248    22387450.633    16354156.097 9 -21269695.427 8
  21627777.076    21627780.406    79384397.785 9-122397500.213 8
 90  2 24  9 59 14.0800000  0  4G 3G16G19G13
  20195130.105    20195132.914    19971012.748 9 -51570038.815 8
  21677970.804    21677973.427   -22898055.664 9  23085172.086 8
  22392042.985    22392047.500    16378309.211 8 -21250874.831 8
  21631162.660    21631166.512    79402191.386 9-122383635.074 8
 90  2 24  9 59 29.0800000  0  4G 3G16G19G13
  20193133.854    20193135.831    19960526.293 8 -51578210.091 8
  21667577.146    21667580.518   -22952673.177 9  23042613.009 9
  22396653.100    22396656.521    16402532.174 9 -21231999.816 8
  21634553.309    21634557.013    79420007.981 9-122369752.024 8
 90  2 24  9 59 44.0800000  0  4G 3G16G19G13
  20191143.788    20191146.814    19950070.408 9 -51586357.517 7
  21657192.807    21657197.110   -23007244.460 9  23000089.942 8
  22401275.256    22401278.338    16426824.818 9 -21213070.481 6
  21637947.575    21637951.697    79437847.772 8-122355850.905 8
 90  2 24  9 59 59.0800000  0  4G 3G16G19G13
  20189160.227    20189163.708    19939645.188 8 -51594481.066 8
  21646816.769    21646820.169   -23061769.359 9  22957603.027 9
  22405910.305    22405914.556    16451186.572 8 -21194087.305 9
  21641347.642    21641351.327    79455710.727 9-122341931.721 8
 90  2 24 10  0 14.0800000  0  4G 3G16G19G13
  20187182.470    20187186.586    19929250.656 9 -51602580.715 8
  21636449.855    21636453.799   -23116247.478 9  22915152.573 8
  22410560.997    22410564.163    16475617.117 9 -21175050.526 7
  21644750.383    21644755.001    79473596.942 9-122327994.411 8
 90  2 24 10  0 29.0800000  0  4G 3G16G19G13
  20185211.033    20185213.897    19918886.674 9 -51610656.535 7
  21626092.680    21626095.318   -23170678.457 9  22872738.831 7
  22415222.183    22415225.982    16500116.189 9 -21155960.357 7
  21648159.719    21648163.019    79491506.465 9-122314038.937 8
 90  2 24 10  0 44.0800000  0  4G 3G16G19G13
  20183243.371    20183245.570    19908553.465 9 -51618708.382 8
  21615742.965    21615747.301   -23225061.829 9  22830362.194 9
  22419897.528    22419900.088    16524683.298 9 -21136817.160 7
  21651572.394    21651575.564    79509439.415 9-122300065.239 8
 90  2 24 10  0 59.0800000  0  4G 3G16G19G13
  20181283.474    20181286.000    19898251.077 9 -51626736.217 8
  21605403.964    21605407.145   -23279397.502 9  22788022.737 9
  22424583.895    22424589.141    16549318.117 9 -21117621.203 8
  21654988.836    21654992.711    79527395.749 9-122286073.309 9
 90  2 24 10  1 14.0800000  0  4G 3G16G19G13
  20179328.443    20179331.135    19887979.628 9 -51634739.930 8
  21595073.872    21595075.374   -23333685.075 9  22745720.742 8
  22429284.730    22429289.843    16574020.142 9 -21098372.877 7
  21658410.120    21658414.406    79545375.574 9-122272063.064 8
 90  2 24 10  1 29.0800000  0  4G 3G16G19G13
  20177380.418    20177383.778    19877739.288 9 -51642719.429 8
  21584751.955    21584754.144   -23387923.892 9  22703456.744 8
  22433998.493    22434003.920    16598789.422 9 -21079072.165 8
  21661835.904    21661839.741    79563379.136 9-122258034.321 9
 90  2 24 10  1 44.0800000  0  4G 3G16G19G13
  20175438.033    20175440.006    19867530.225 9 -51650674.553 7
  21574439.272    21574442.845   -23442113.724 9  22661230.928 8
  22438724.974    22438728.456    16623625.355 9 -21059719.496 7
  21665266.971    21665269.911    79581406.606 9-122243986.954 7
 90  2 24 10  1 59.0800000  0  4G 3G16G19G13
  20173500.853    20173503.137    19857352.442 9 -51658605.303 8
  21564136.773    21564141.629   -23496254.233 9  22619043.530 9
  22443463.091    22443466.705    16648527.502 8 -21040315.236 8
  21668700.703    21668706.068    79599458.028 9-122229920.918 9
 90  2 24 10  2 14.0800000  0  4G 3G16G19G13
  20171569.460    20171572.724    19847205.993 9 -51666511.628 8
  21553843.088    21553847.386   -23550345.012 9  22576894.908 8
  22448215.013    22448218.724    16673495.768 9 -21020859.446 7
  21672140.979    21672146.367    79617533.349 9-122215836.271 8
 90  2 24 10  2 29.0800000  0  4G 3G16G19G13
  20169644.900    20169648.227    19837091.042 9 -51674393.403 8
  21543560.899    21543564.715   -23604385.635 9  22534785.348 8
  22452978.777    22452983.274    16698529.827 9 -21001352.393 7
  21675584.884    21675589.414    79635632.497 9-122201733.058 9
 90  2 24 10  2 44.0800000  0  4G 3G16G19G13
  20167726.333    20167728.908    19827007.413 8 -51682250.777 7
  21533286.055    21533290.505   -23658376.090 9  22492714.897 8
  22457754.899    22457758.356    16723628.959 9 -20981794.643 7
  21679033.699    21679038.445    79653755.631 9-122187611.137 8
 90  2 24 10  2 59.0800000  0  4G 3G16G19G13
  20165813.673    20165816.318    19816955.238 9 -51690083.637 7
  21523021.714    21523025.806   -23712316.093 9  22450683.762 8
  22462543.404    22462548.305    16748792.673 9 -20962186.580 7
  21682487.236    21682491.998    79671903.042 9-122173470.316 8
 90  2 24 10  3 14.0800000  0  4G 3G16G19G13
  20163906.458    20163909.172    19806934.795 9 -51697891.777 8
  21512767.226    21512770.265   -23766204.871 9  22408692.525 8
  22467344.433    22467346.162    16774020.895 9 -20942528.225 7
  21685944.993    21685950.215    79690074.859 9-122159310.459 8
 90  2 24 10  3 29.0800000  0  4G 3G16G19G13
  20162005.716    20162008.689    19796946.127 9 -51705675.146 8
  21502522.522    21502526.171   -23820042.187 9  22366741.405 8
  22472157.840    22472161.634    16799313.299 9 -20922819.850 7
  21689406.415    21689412.145    79708270.988 9-122145131.675 8
 90  2 24 10  3 44.0800000  0  4G 3G16G19G13
  20160111.780    20160114.208    19786989.357 9 -51713433.664 8
  21492287.329    21492290.968   -23873827.567 9  22324830.748 9
  22476982.074    22476986.550    16824669.427 8 -20903061.824 7
  21692874.437    21692880.070    79726491.627 9-122130933.792 7
 90  2 24 10  3 59.0800000  0  4G 3G16G19G13
  20158221.853    20158224.908    19777064.672 9 -51721167.183 8
  21482062.319    21482066.650   -23927560.674 9  22282960.813 9
  22481819.513    22481823.172    16850089.262 9 -20883254.180 7
  21696347.419    21696351.075    79744736.820 9-122116716.769 8
 90  2 24 10  4 14.0800000  0  4G 3G16G19G13
  20156340.826    20156343.712    19767172.162 9 -51728875.623 8
  21471846.891    21471851.079   -23981241.172 9  22241131.877 9
  22486668.775    22486672.615    16875572.407 9 -20863397.200 7
  21699823.137    21699827.640    79763006.658 9-122102480.546 8
 90  2 24 10  4 29.0800000  0  4G 3G16G19G13
  20154463.026    20154466.837    19757311.878 9 -51736558.972 8
  21461641.900    21461646.507   -24034868.830 9  22199344.121 8
  22491530.773    22491534.095    16901118.178 9 -20843491.400 6
  21703303.786    21703309.603    79781301.206 9-122088225.059 8
 90  2 24 10  4 44.0800000  0  4G 3G16G19G13
  20152593.797    20152597.067    19747483.970 8 -51744217.073 7
  21451446.066    21451451.570   -24088443.121 9  22157597.940 9
  22496403.969    22496405.523    16926726.445 9 -20823536.916 7
  21706790.293    21706796.180    79799620.542 9-122073950.272 8
 90  2 24 10  4 59.0800000  0  4G 3G16G19G13
  20150729.307    20150733.500    19737688.600 9 -51751849.845 8
  21441261.870    21441266.507   -24141963.604 9  22115893.700 8
  22501288.607    22501291.609    16952396.989 9 -20803533.914 7
  21710282.421    21710286.456    79817964.960 9-122059655.935 7
 90  2 24 10  5 14.0800000  0  4G 3G16G19G13
  20148871.998    20148875.423    19727925.932 9 -51759457.111 8
  21431087.482    21431091.612   -24195429.972 9  22074231.616 9
  22506185.536    22506189.633    16978129.367 9 -20783482.710 8
  21713776.840    21713782.643    79836334.671 8-122045341.890 9
 90  2 24 10  5 29.0800000  0  4G 3G16G19G13
  20147021.082    20147024.316    19718195.824 9 -51767039.006 7
  21420924.488    21420928.146   -24248842.104 9  22032611.797 9
  22511093.245    22511097.006    17003922.671 9 -20763384.039 7
  21717277.311    21717282.022    79854729.555 9-122031008.217 8
 90  2 24 10  5 44.0800000  0  4G 3G16G19G13
  20145175.600    20145177.927    19708498.391 9 -51774595.453 8
  21410770.823    21410774.706   -24302199.353 9  21991034.757 8
  22516014.201    22516016.237    17029777.081 9 -20743237.747 5
  21720781.707    21720787.251    79873149.737 9-122016654.842 7
 90  2 24 10  5 59.0800000  0  4G 3G16G19G13
  20143335.349    20143338.030    19698833.917 9 -51782126.210 7
  21400626.956    21400631.215   -24355501.437 9  21949500.686 9
  22520944.155    22520948.909    17055692.198 9 -20723044.159 7
  21724292.109    21724298.155    79891595.356 9-122002281.647 9
 90  2 24 10  6 14.0800000  0  4G 3G16G19G13
  20141503.174    20141505.432    19689202.455 9 -51789631.238 8
  21390494.326    21390499.239   -24408747.887 9  21908009.965 9
  22525888.185    22525892.043    17081667.824 8 -20702803.426 7
  21727808.993    21727812.347    79910066.539 9-121987888.528 7
 90  2 24 10  6 29.0800000  0  4G 3G16G19G13
  20139677.383    20139680.078    19679604.021 9 -51797110.542 8
  21380372.599    21380377.613   -24461938.521 9  21866562.753 9
  22530841.034    22530847.350    17107703.168 8 -20682516.153 7
  21731328.350    21731332.412    79928563.120 9-121973475.614 8
 90  2 24 10  6 44.0800000  0  4G 3G16G19G13
  20137856.598    20137858.838    19670038.890 9 -51804563.880 8
  21370262.058    21370266.108   -24515072.911 9  21825159.349 9
  22535806.123    22535811.810    17133798.300 7 -20662182.334 7
  21734852.589    21734856.025    79947085.375 9-121959042.703 7
 90  2 24 10  6 59.0800000  0  4G 3G16G19G13
  20136043.564    20136046.068    19660507.226 9 -51811991.147 8
  21360161.724    21360166.279   -24568150.463 9  21783800.243 8
  22540785.096    22540788.903    17159952.923 8 -20641802.102 6
  21738382.782    21738386.101    79965633.537 9-121944589.612 9
 90  2 24 10  7 14.0800000  0  4G 3G16G19G13
  20134236.108    20134239.659    19651009.125 9 -51819392.268 8
  21350072.013    21350076.267   -24621170.944 9  21742485.598 8
  22545771.755    22545776.673    17186166.625 8 -20621375.819 7
  21741916.611    21741921.326    79984207.749 9-121930116.208 7
 90  2 24 10  7 29.0800000  0  4G 3G16G19G13
  20132434.387    20132437.290    19641544.416 9 -51826767.368 7
  21339994.001    21339998.151   -24674134.187 9  21701215.556 9
  22550772.479    22550777.541    17212438.947 8 -20600903.885 8
  21745456.476    21745460.414    80002807.768 9-121915622.687 8
 90  2 24 10  7 44.0800000  0  4G 3G16G19G13
  20130640.630    20130643.241    19632113.336 9 -51834116.252 9
  21329925.948    21329930.003   -24727039.623 9  21659990.574 9
  22555783.680    22555787.444    17238769.478 8 -20580386.591 8
  21749000.836    21749005.605    80021433.947 9-121901108.790 9
 90  2 24 10  7 59.0800000  0  4G 3G16G19G13
  20128851.177    20128854.759    19622716.292 8 -51841438.623 8
  21319869.171    21319874.552   -24779886.612 9  21618811.115 9
  22560803.946    22560808.825    17265158.120 8 -20559824.028 7
  21752550.711    21752554.684    80040086.388 9-121886574.415 8
 90  2 24 10  8 14.0800000  0  4G 3G16G19G13
  20127069.277    20127071.884    19613353.397 9 -51848734.388 8
  21309823.832    21309828.182   -24832675.082 9  21577677.271 9
  22565835.998    22565840.349    17291604.532 8 -20539216.470 7
  21756105.341    21756109.519    80058765.560 9-121872019.235 8
 90  2 24 10  8 29.0800000  0  4G 3G16G19G13
  20125294.313    20125297.082    19604024.566 9 -51856003.611 7
  21299790.465    21299794.395   -24885404.544 9  21536589.402 9
  22570881.014    22570886.104    17318108.151 8 -20518564.298 8
  21759664.900    21759668.122    80077471.304 9-121857443.349 6
 90  2 24 10  8 44.0800000  0  4G 3G16G19G13
  20123524.769    20123528.158    19594729.916 9 -51863246.203 7
  21289767.811    21289770.654   -24938074.898 9  21495547.597 9
  22575933.357    22575939.921    17344668.573 7 -20497867.879 8
  21763229.161    21763233.008    80096203.419 9-121842846.916 8
 90  2 24 10  8 59.0800000  0  4G 3G16G19G13
  20121763.200    20121765.237    19585469.289 9 -51870462.271 8
  21279756.132    21279759.380   -24990685.875 9  21454552.044 9
  22580998.941    22581004.630    17371285.226 8 -20477127.670 7
  21766798.928    21766803.376    80114961.791 9-121828230.013 7
 90  2 24 10  9 14.0800000  0  4G 3G16G19G13
  20120008.037    20120010.996    19576242.795 9 -51877651.746 8
  21269755.748    21269759.716   -25043237.094 9  21413603.066 9
  22586076.546    22586079.987    17397957.810 8 -20456343.845 7
  21770371.681    21770378.640    80133746.742 9-121813592.406 8
 90  2 24 10  9 29.0800000  0  4G 3G16G19G13
  20118259.170    20118261.424    19567050.680 9 -51884814.444 8
  21259766.472    21259771.003   -25095728.225 9  21372700.913 8
  22591160.021    22591164.697    17424686.227 8 -20435516.507 7
  21773952.468    21773957.571    80152558.326 9-121798934.034 7
 90  2 24 10  9 44.0800000  0  4G 3G16G19G13
  20116516.310    20116518.445    19557892.859 9 -51891950.398 8
  21249789.479    21249792.708   -25148158.841 9  21331845.908 9
  22596255.844    22596261.694    17451469.861 7 -20414646.140 7
  21777538.110    21777542.168    80171396.621 9-121784254.843 8
 90  2 24 10  9 59.0800000  0  4G 3G16G19G13
  20114779.406    20114781.769    19548769.605 9 -51899059.439 8
  21239823.584    21239827.271   -25200528.760 9  21291038.204 8
  22601364.246    22601370.717    17478308.183 7 -20393733.203 7
  21781127.696    21781130.564    80190261.456 9-121769554.984 7
 90  2 24 10 10 14.0800000  0  4G 3G16G19G13
  20113050.088    20113052.389    19539680.738 9 -51906141.664 8
  21229869.928    21229872.671   -25252837.492 9  21250278.160 8
  22606482.394    22606488.721    17505200.789 8 -20372777.945 8
  21784722.266    21784726.951    80209153.131 9-121754834.216 7
 90  2 24 10 10 29.0800000  0  4G 3G16G19G13
  20111327.566    20111329.633    19530626.621 9 -51913196.818 8
  21219927.444    21219930.664   -25305084.673 9  21209566.093 9
  22611610.522    22611615.476    17532147.623 7 -20351780.432 8
  21788322.199    21788326.377    80228071.857 9-121740092.340 8
 90  2 24 10 10 44.0800000  0  4G 3G16G19G13
  20109611.732    20109614.043    19521607.513 8 -51920224.695 9
  21209997.495    21209999.998   -25357269.763 9  21168902.413 8
  22616747.763    22616754.050    17559148.477 7 -20330740.817 8
  21791927.889    21791933.289    80247017.639 9-121725329.415 7
 90  2 24 10 10 59.0800000  0  4G 3G16G19G13
  20107901.447    20107904.535    19512623.518 9 -51927225.208 8
  21200078.167    21200081.410   -25409392.438 9  21128287.362 8
  22621897.397    22621902.015    17586203.117 8 -20309659.313 8
  21795538.010    21795542.870    80265990.619 9-121710545.286 8
 90  2 24 10 11 14.0800000  0  4G 3G16G19G13
  20106198.515    20106201.129    19503674.722 9 -51934198.283 8
  21190171.031    21190175.318   -25461452.502 9  21087721.093 9
  22627055.503    22627059.313    17613310.799 7 -20288536.442 8
  21799153.555    21799157.693    80284990.848 9-121695739.937 7
 90  2 24 10 11 29.0800000  0  4G 3G16G19G13
  20104502.387    20104504.562    19494761.438 9 -51941143.706 7
  21180277.531    21180281.457   -25513449.293 9  21047204.136 8
  22632224.275    22632227.442    17640471.317 8 -20267372.410 7
  21802775.471    21802779.092    80304018.774 9-121680913.003 8
 90  2 24 10 11 44.0800000  0  4G 3G16G19G13
  20102812.691    20102815.956    19485883.466 9 -51948061.611 8
  21170394.812    21170397.907   -25565382.513 9  21006736.708 8
  22637402.326    22637407.091    17667684.421 7 -20246167.415 7
  21806401.119    21806406.265    80323074.547 9-121666064.346 7
 90  2 24 10 11 59.0800000  0  4G 3G16G19G13
  20101128.756    20101133.810    19477041.086 8 -51954951.780 8
  21160524.369    21160527.093   -25617251.886 9  20966319.050 9
  22642590.687    22642595.593    17694949.396 9 -20224921.970 8
  21810032.719    21810037.565    80342157.930 9-121651194.207 7
 90  2 24 10 12 14.0800000  0  4G 3G16G19G13
  20099453.930    20099457.218    19468234.387 8 -51961814.156 8
  21150665.603    21150668.612   -25669057.230 9  20925951.259 8
  22647787.785    22647792.920    17722265.965 8 -20203636.348 7
  21813669.094    21813673.727    80361269.066 9-121636302.415 8
 90  2 24 10 12 29.0800000  0  4G 3G16G19G13
  20097784.171    20097788.765    19459463.460 9 -51968648.635 9
  21140819.386    21140823.373   -25720798.067 9  20885633.736 8
  22652997.660    22653002.743    17749633.837 9 -20182310.739 8
  21817311.629    21817317.049    80380407.923 9-121621389.038 7
 90  2 24 10 12 44.0800000  0  4G 3G16G19G13
  20096121.693    20096128.395    19450728.313 9 -51975455.234 7
  21130984.940    21130989.305   -25772474.089 9  20845366.748 9
  22658215.642    22658220.029    17777052.556 9 -20160945.520 8
  21820959.456    21820962.854    80399574.699 9-121606453.897 7
 90  2 24 10 12 59.0800000  0  4G 3G16G19G13
  20094467.694    20094470.520    19442029.096 9 -51982233.858 9
  21121165.200    21121168.467   -25824084.870 9  20805150.576 8
  22663442.634    22663447.578    17804521.791 8 -20139540.944 8
  21824611.648    21824616.743    80418769.472 9-121591496.948 8
 90  2 24 10 13 14.0800000  0  4G 3G16G19G13
  20092819.020    20092821.095    19433366.001 9 -51988984.316 8
  21111356.792    21111358.991   -25875630.241 9  20764985.374 9
  22668679.079    22668684.509    17832041.376 9 -20118097.130 8
  21828269.166    21828273.652    80437992.357 9-121576518.067 7
 90  2 24 10 13 29.0800000  0  4G 3G16G19G13
  20091176.845    20091179.768    19424739.054 9 -51995706.624 8
  21101559.284    21101562.728   -25927109.606 9  20724871.599 9
  22673926.092    22673930.116    17859610.933 9 -20096614.360 8
  21831933.092    21831936.974    80457243.673 9-121561517.052 7
 90  2 24 10 13 44.0800000  0  4G 3G16G19G13
  20089542.680    20089546.102    19416148.467 9 -52002400.595 8
  21091775.841    21091779.504   -25978522.835 9  20684809.369 9
  22679181.490    22679184.641    17887230.050 9 -20075092.981 8
  21835602.240    21835605.138    80476523.375 9-121546493.910 7
 90  2 24 10 13 59.0800000  0  4G 3G16G19G13
  20087915.019    20087918.916    19407594.255 9 -52009066.214 8
  21082005.239    21082009.197   -26029869.374 9  20644799.099 8
  22684446.832    22684450.456    17914898.125 9 -20053533.450 9
  21839275.667    21839279.570    80495831.358 9-121531448.749 7
 90  2 24 10 14 14.0800000  0  4G 3G16G19G13
  20086294.606    20086297.887    19399076.670 9 -52015703.287 8
  21072246.856    21072251.130   -26081148.881 9  20604841.062 8
  22689720.758    22689724.602    17942614.852 9 -20031936.024 8
  21842955.029    21842959.603    80515167.636 9-121516381.534 7
 90  2 24 10 14 29.0800000  0  4G 3G16G19G13
  20084680.395    20084683.689    19390595.636 8 -52022311.875 7
  21062501.671    21062506.227   -26132361.118 9  20564935.441 8
  22695004.006    22695008.479    17970380.023 9 -20010300.827 8
  21846639.719    21846644.390    80534532.294 9-121501292.197 8
 90  2 24 10 14 44.0800000  0  4G 3G16G19G13
  20083073.509    20083076.463    19382151.354 9 -52028891.843 9
  21052769.022    21052773.209   -26183505.605 9  20525082.611 8
  22700295.962    22700300.898    17998193.307 9 -19988628.146 9
  21850330.885    21850335.129    80553925.811 9-121486180.391 8
 90  2 24 10 14 59.0800000  0  4G 3G16G19G13
  20081473.856    20081475.730    19373743.988 9 -52035443.040 8
  21043049.980    21043052.737   -26234582.261 9  20485282.640 9
  22705596.982    22705602.804    18026054.335 9 -19966918.267 7
  21854026.439    21854030.881    80573347.839 9-121471046.355 7
 90  2 24 10 15 14.0800000  0  4G 3G16G19G13
  20079881.445    20079882.451    19365373.526 9 -52041965.474 8
  21033343.335    21033346.106   -26285590.554 9  20445535.935 9
  22710908.796    22710913.083    18053962.440 8 -19945171.694 8
  21857728.464    21857732.332    80592798.568 9-121455889.945 7
 90  2 24 10 15 29.0800000  0  4G 3G16G19G13
  20078294.673    20078298.087    19357039.830 9 -52048459.260 8
  21023650.502    21023653.125   -26336530.543 9  20405842.455 8
  22716228.752    22716232.782    18081917.209 8 -19923388.769 9
  21861436.121    21861439.495    80612278.045 9-121440711.151 7
 90  2 24 10 15 44.0800000  0  4G 3G16G19G13
  20076715.677    20076718.036    19348743.362 9 -52054924.044 8
  21013970.825    21013972.681   -26387401.528 9  20366202.735 8
  22721557.569    22721561.926    18109918.251 9 -19901569.782 9
  21865148.513    21865151.506    80631786.303 9-121425509.928 8
 90  2 24 10 15 59.0800000  0  4G 3G16G19G13
  20075144.621    20075146.452    19340484.528 9 -52061359.484 8
  21004302.567    21004305.105   -26438202.806 9  20326617.353 9
  22726895.119    22726899.232    18137965.923 9 -19879714.473 9
  21868865.341    21868868.918    80651323.892 9-121410285.837 8
 90  2 24 10 16 14.0800000  0  4G 3G16G19G13
  20073579.896    20073582.272    19332263.242 9 -52067765.671 9
  20994648.079    20994651.790   -26488934.068 9  20287086.517 9
  22732240.996    22732244.954    18166059.510 9 -19857823.385 9
  21872588.875    21872593.104    80670890.970 9-121395038.783 8
 90  2 24 10 16 29.0800000  0  4G 3G16G19G13
  20072023.350    20072025.799    19324079.729 9 -52074142.433 7
  20985007.842    20985011.429   -26539595.368 9  20247610.193 8
  22737596.252    22737600.741    18194198.339 9 -19835897.027 9
  21876317.031    21876321.396    80690487.271 9-121379768.954 9
 90  2 24 10 16 44.0800000  0  4G 3G16G19G13
  20070472.443    20070475.517    19315933.665 9 -52080490.027 8
  20975380.499    20975383.318   -26590186.322 9  20208188.700 9
  22742958.968    22742963.963    18222382.088 9 -19813935.678 8
  21880051.506    21880056.684    80710112.945 9-121364476.226 7
 90  2 24 10 16 59.0800000  0  4G 3G16G19G13
  20068929.629    20068931.629    19307825.426 9 -52086808.141 8
  20965766.606    20965769.773   -26640706.506 9  20168822.331 8
  22748329.279    22748335.863    18250610.407 9 -19791939.593 8
  21883792.384    21883795.598    80729768.008 9-121349160.608 8
 90  2 24 10 17 14.0800000  0  4G 3G16G19G13
  20067393.134    20067396.510    19299755.255 9 -52093096.584 7
  20956165.414    20956169.412   -26691155.562 9  20129511.402 9
  22753710.209    22753715.140    18278883.199 9 -19769908.860 7
  21887538.489    21887543.063    80749452.694 9-121333821.907 8
 90  2 24 10 17 29.0800000  0  4G 3G16G19G13
  20065864.571    20065868.656    19291723.087 9 -52099355.417 9
  20946579.491    20946582.472   -26741532.975 9  20090256.303 9
  22759098.879    22759103.526    18307199.995 9 -19747843.835 8
  21891290.575    21891294.555    80769166.815 9-121318460.281 7
 90  2 24 10 17 44.0800000  0  4G 3G16G19G13
  20064343.788    20064347.131    19283729.367 9 -52105584.301 8
  20937007.147    20937011.244   -26791838.535 9  20051057.176 8
  22764496.372    22764500.769    18335560.475 9 -19725744.780 8
  21895047.093    21895052.095    80788910.921 9-121303075.272 8
 90  2 24 10 17 59.0800000  0  4G 3G16G19G13
  20062830.514    20062833.011    19275773.992 9 -52111783.295 7
  20927448.383    20927451.683   -26842071.792 9  20011914.395 8
  22769900.475    22769904.860    18363964.168 8 -19703612.048 8
  21898809.754    21898814.243    80808684.801 9-121287667.066 8
 90  2 24 10 18 14.0800000  0  4G 3G16G19G13
  20061323.704    20061326.446    19267857.236 9 -52117952.190 8
  20917902.454    20917904.934   -26892232.346 9  19972828.266 8
  22775313.446    22775318.954    18392410.700 9 -19681445.943 8
  21902578.320    21902584.197    80828488.831 9-121272235.381 7
 90  2 24 10 18 29.0800000  0  4G 3G16G19G13
  20059825.326    20059827.280    19259979.058 9 -52124091.035 7
  20908370.948    20908374.268   -26942319.905 9  19933799.022 8
  22780735.538    22780740.982    18420899.632 9 -19659246.782 8
  21906353.014    21906357.273    80848322.967 9-121256780.220 8
 90  2 24 10 18 44.0800000  0  4G 3G16G19G13
  20058333.546    20058335.422    19252139.553 9 -52130199.743 9
  20898853.413    20898857.520   -26992334.384 9  19894826.723 9
  22786165.063    22786170.090    18449430.583 9 -19637014.874 8
  21910133.009    21910138.479    80868187.095 7-121241301.698 8
 90  2 24 10 18 59.0800000  0  4G 3G16G19G13
  20056848.440    20056852.243    19244338.986 9 -52136278.100 7
  20889350.841    20889353.936   -27042275.209 9  19855911.827 8
  22791602.642    22791606.267    18478003.505 9 -19614750.264 8
  21913918.698    21913924.143    80888081.337 8-121225799.702 8
 90  2 24 10 19 14.0800000  0  4G 3G16G19G13
  20055371.996    20055374.121    19236577.424 9 -52142326.069 9
  20879861.008    20879864.815   -27092142.206 9  19817054.441 9
  22797046.337    22797051.466    18506617.550 9 -19592453.609 7
  21917710.374    21917715.217    80908006.082 9-121210273.955 9
 90  2 24 10 19 29.0800000  0  4G 3G16G19G13
  20053901.872    20053904.548    19228854.725 9 -52148343.764 8
  20870385.900    20870390.126   -27141934.963 9  19778254.914 9
  22802500.674    22802504.754    18535272.686 8 -19570124.943 9
  21921507.930    21921511.588    80927961.141 9-121194724.572 8
 90  2 24 10 19 44.0800000  0  4G 3G16G19G13
  20052440.047    20052442.857    19221171.143 9 -52154330.969 7
  20860924.443    20860928.173   -27191653.355 9  19739513.338 9
  22807960.227    22807965.183    18563968.280 9 -19547764.757 9
  21925310.452    21925315.175    80947946.536 8-121179151.572 7
 90  2 24 10 19 59.0800000  0  4G 3G16G19G13
  20050985.198    20050987.404    19213527.157 9 -52160287.314 7
  20851477.581    20851481.712   -27241296.632 9  19700830.288 9
  22813428.338    22813434.191    18592704.312 9 -19525373.065 8
  21929119.273    21929124.453    80967962.748 8-121163554.532 9
 90  2 24 10 20 14.0800000  0  4G 3G16G19G13
  20049538.003    20049540.497    19205922.772 9 -52166212.817 8
  20842044.709    20842048.596   -27290864.416 9  19662206.055 9
  22818904.837    22818908.499    18621480.448 9 -19502950.110 8
  21932933.554    21932939.510    80988009.804 7-121147933.473 8
 90  2 24 10 20 29.0800000  0  4G 3G16G19G13
  20048099.466    20048100.964    19198357.919 9 -52172107.519 8
  20832627.386    20832631.316   -27340356.495 9  19623640.827 9
  22824388.439    22824392.056    18650295.981 9 -19480496.465 7
  21936753.500    21936759.896    81008087.860 7-121132288.244 9
 90  2 24 10 20 44.0800000  0  4G 3G16G19G13
  20046666.348    20046668.716    19190832.901 9 -52177971.146 9
  20823224.320    20823227.086   -27389772.632 9  19585134.760 9
  22829879.015    22829882.911    18679150.804 9 -19458012.176 7
  21940581.753    21940586.312    81028196.874 8-121116618.897 8
 90  2 24 10 20 59.0800000  0  4G 3G16G19G13
  20045241.412    20045244.563    19183347.633 9 -52183803.827 7
  20813835.214    20813838.692   -27439112.514 9  19546688.106 9
  22835377.241    22835382.764    18708044.382 9 -19435497.709 8
  21944412.942    21944418.458    81048336.411 8-121100925.787 8
 90  2 24 10 21 14.0800000  0  4G 3G16G19G13
  20043825.408    20043827.945    19175902.188 9 -52189605.462 7
  20804460.176    20804463.671   -27488375.878 9  19508301.098 9
  22840882.305    22840888.340    18736976.163 8 -19412953.491 9
  21948251.207    21948256.583    81068506.991 8-121085208.465 8
 90  2 24 10 21 29.0800000  0  4G 3G16G19G13
  20042415.869    20042418.714    19168497.093 9 -52195375.680 7
  20795100.638    20795104.477   -27537562.086 9  19469974.202 8
  22846394.725    22846400.596    18765946.170 9 -19390379.461 8
  21952096.774    21952101.520    81088708.718 8-121069466.882 8
 90  2 24 10 21 44.0800000  0  4G 3G16G19G13
  20041014.630    20041017.401    19161132.373 9 -52201114.427 8
  20785755.705    20785758.753   -27586670.702 9  19431707.763 8
  22851915.510    22851919.840    18794953.986 8 -19367775.987 8
  21955946.772    21955951.491    81108941.677 9-121053700.955 9
 90  2 24 10 21 59.0800000  0  4G 3G16G19G13
  20039620.425    20039624.103    19153807.970 8 -52206821.752 8
  20776425.401    20776428.654   -27635701.699 9  19393501.815 9
  22857442.934    22857446.829    18823998.819 9 -19345143.628 8
  21959802.186    21959808.365    81129205.983 9-121037910.597 8
 90  2 24 10 22 14.0800000  0  4G 3G16G19G13
  20038234.528    20038237.795    19146524.133 9 -52212497.472 8
  20767109.821    20767112.511   -27684654.535 8  19355356.763 9
  22862976.634    22862979.915    18853080.742 8 -19322482.393 7
  21963664.307    21963670.239    81149501.796 8-121022095.693 8
 90  2 24 10 22 29.0800000  0  4G 3G16G19G13
  20036856.808    20036859.734    19139281.078 9 -52218141.390 8
  20757809.581    20757812.987   -27733528.989 8  19317272.793 9
  22868516.736    22868521.990    18882199.406 9 -19299792.535 8
  21967533.684    21967539.134    81169829.209 8-121006256.158 7
 90  2 24 10 22 44.0800000  0  4G 3G16G19G13
  20035487.053    20035487.814    19132078.628 9 -52223753.694 8
  20748523.678    20748527.323   -27782324.810 9  19279250.097 9
  22874066.347    22874069.823    18911354.391 7 -19277074.398 7
  21971408.094    21971413.517    81190188.296 9-120990391.955 9
 90  2 24 10 22 59.0800000  0  4G 3G16G19G13
  20034123.078    20034126.070    19124917.020 9 -52229334.165 7
  20739253.721    20739257.389   -27831041.435 9  19241289.101 9
  22879621.679    22879624.726    18940544.931 8 -19254328.541 8
  21975289.061    21975292.483    81210578.953 9-120974503.150 9
 90  2 24 10 23 14.0800000  0  4G 3G16G19G13
  20032768.562    20032771.250    19117796.525 9 -52234882.618 8
  20729996.761    20730002.347   -27879678.778 9  19203389.900 9
  22885181.626    22885187.380    18969770.886 8 -19231555.085 7
  21979174.624    21979178.860    81231001.382 9-120958589.596 8
 90  2 24 10 23 29.0800000  0  4G 3G16G19G13
  20031421.843    20031423.138    19110717.386 9 -52240398.823 8
  20720757.235    20720760.746   -27928236.330 9  19165552.875 8
  22890751.495    22890755.212    18999031.959 8 -19208754.246 7
  21983066.749    21983071.645    81251455.691 8-120942651.181 9
 90  2 24 10 23 44.0800000  0  4G 3G16G19G13
  20030082.192    20030084.995    19103679.632 9 -52245882.774 7
  20711531.817    20711535.419   -27976713.745 9  19127778.287 9
  22896325.551    22896329.921    19028327.787 8 -19185926.351 7
  21986964.579    21986969.387    81271941.981 9-120926687.850 8
 90  2 24 10 23 59.0800000  0  4G 3G16G19G13
  20028751.435    20028753.097    19096683.274 9 -52251334.486 8
  20702322.240    20702327.110   -28025110.827 9  19090066.294 8
  22901903.985    22901911.862    19057658.016 7 -19163071.634 8
  21990869.344    21990874.271    81292460.187 9-120910699.656 8
 90  2 24 10 24 14.0800000  0  4G 3G16G19G13
  20027427.000    20027430.733    19089728.445 9 -52256753.841 8
  20693128.250    20693131.403   -28073427.280 9  19052417.118 8
  22907493.462    22907500.488    19087022.124 8 -19140190.541 8
  21994780.460    21994784.375    81313010.480 9-120894686.445 8
 90  2 24 10 24 29.0800000  0  4G 3G16G19G13
  20026111.652    20026114.211    19082815.304 9 -52262140.715 8
  20683950.521    20683953.773   -28121662.536 9  19014831.233 9
  22913087.588    22913094.203    19116419.883 7 -19117283.222 7
  21998697.176    21998701.230    81333593.252 9-120878647.954 7
 90  2 24 10 24 44.0800000  0  4G 3G16G19G13
  20024803.477    20024807.116    19075943.949 9 -52267495.008 8
  20674786.766    20674788.984   -28169816.574 9  18977308.635 8
  22918689.938    22918694.264    19145850.611 7 -19094350.181 6
  22002620.360    22002624.498    81354208.269 9-120862584.305 7
 90  2 24 10 24 59.0800000  0  4G 3G16G19G13
  20023503.864    20023507.693    19069114.409 8 -52272816.731 8
  20665638.322    20665641.985   -28217888.814 9  18939849.737 9
  22924294.469    22924300.306    19175314.311 6 -19071391.478 6
  22006549.667    22006552.684    81374855.598 9-120846495.493 8
 90  2 24 10 25 14.0800000  0  4G 3G16G19G13
  20022212.948    20022214.280    19062326.953 9 -52278105.657 8
  20656505.700    20656509.077   -28265879.084 9  18902454.752 9
  22929910.132    22929913.292    19204810.429 7 -19048407.502 7
  22010484.450    22010489.224    81395535.501 9-120830381.297 7
 90  2 24 10 25 29.0800000  0  4G 3G16G19G13
  20020929.700    20020931.757    19055581.893 9 -52283361.549 7
  20647390.349    20647393.282   -28313786.805 9  18865124.074 8
  22935527.975    22935531.618    19234338.566 6 -19025398.563 7
  22014425.730    22014430.292    81416248.108 9-120814241.619 8
 90  2 24 10 25 44.0800000  0  4G 3G16G19G13
  20019653.663    20019657.224    19048879.384 9 -52288584.281 8
  20638288.992    20638291.052   -28361611.720 9  18827857.920 8
  22941152.500    22941156.334    19263898.410 7 -19002364.938 7
  22018373.264    22018377.111    81436993.342 8-120798076.510 8
 90  2 24 10 25 59.0800000  0  4G 3G16G19G13
  20018385.657    20018388.416    19042219.181 8 -52293774.040 8
  20629204.105    20629206.958   -28409353.699 9  18790656.393 8
  22946783.842    22946788.615    19293489.578 8 -18979306.896 6
  22022328.221    22022331.912    81457771.209 9-120781885.983 7
 90  2 24 10 26 14.0800000  0  4G 3G16G19G13
  20017126.865    20017128.596    19035601.710 9 -52298930.522 8
  20620134.696    20620138.020   -28457012.259 9  18753519.867 8
  22952421.918    22952424.913    19323111.784 7 -18956224.687 7
  22026287.819    22026292.552    81478581.795 9-120765669.963 8
 90  2 24 10 26 29.0800000  0  4G 3G16G19G13
  20015876.306    20015878.517    19029027.204 9 -52304053.503 7
  20611080.636    20611084.700   -28504586.989 9  18716448.659 9
  22958062.945    22958068.106    19352764.629 8 -18933118.566 7
  22030254.528    22030258.600    81499425.348 9-120749428.244 9
 90  2 24 10 26 44.0800000  0  4G 3G16G19G13
  20014634.091    20014636.207    19022495.665 9 -52309143.010 8
  20602043.875    20602047.347   -28552077.488 9  18679443.092 9
  22963711.755    22963717.105    19382447.812 9 -18909988.806 7
  22034226.830    22034231.801    81520301.906 9-120733160.820 8
 90  2 24 10 26 59.0800000  0  4G 3G16G19G13
  20013398.579    20013401.684    19016007.454 9 -52314198.763 8
  20593023.546    20593025.469   -28599483.372 9  18642503.475 8
  22969365.333    22969370.896    19412161.334 8 -18886835.429 7
  22038206.599    22038210.221    81541211.903 9-120716867.324 8
 90  2 24 10 27 14.0800000  0  4G 3G16G19G13
  20012172.200    20012174.063    19009562.444 9 -52319220.850 8
  20584018.605    20584021.772   -28646804.295 9  18605630.041 7
  22975027.513    22975030.919    19441904.443 9 -18863659.016 7
  22042191.183    22042195.071    81562155.261 9-120700547.828 8
 90  2 24 10 27 29.0800000  0  4G 3G16G19G13
  20010954.538    20010956.581    19003160.977 9 -52324209.001 8
  20575030.095    20575032.080   -28694040.018 9  18568822.993 8
  22980691.873    22980694.998    19471676.648 8 -18840459.904 7
  22046182.886    22046186.906    81583132.058 9-120684202.294 8
 90  2 24 10 27 44.0800000  0  4G 3G16G19G13
  20009744.169    20009746.405    18996803.045 9 -52329163.230 8
  20566057.230    20566059.233   -28741190.390 9  18532082.450 8
  22986362.785    22986366.920    19501477.529 9 -18817238.434 8
  22050180.905    22050185.719    81604142.220 9-120667830.751 8
 90  2 24 10 27 59.0800000  0  4G 3G16G19G13
  20008542.848    20008545.189    18990488.739 9 -52334083.464 7
  20557100.439    20557103.463   -28788255.034 9  18495408.716 8
  22992039.078    22992043.124    19531306.658 8 -18793994.956 7
  22054186.678    22054189.433    81625186.049 9-120651432.977 8
 90  2 24 10 28 14.0800000  0  4G 3G16G19G13
  20007349.950    20007351.755    18984218.273 9 -52338969.525 8
  20548161.649    20548164.463   -28835233.512 9  18458802.125 8
  22997720.052    22997723.657    19561163.972 9 -18770729.516 7
  22058196.668    22058201.355    81646263.367 9-120635009.105 7
 90  2 24 10 28 29.0800000  0  4G 3G16G19G13
  20006164.674    20006167.128    18977991.886 9 -52343821.264 8
  20539238.537    20539240.678   -28882125.645 9  18422262.818 9
  23003407.151    23003410.013    19591049.123 8 -18747442.406 7
  22062213.575    22062217.918    81667374.310 9-120618559.038 8
 90  2 24 10 28 44.0800000  0  4G 3G16G19G13
  20004987.853    20004990.829    18971809.238 9 -52348638.905 8
  20530331.857    20530334.523   -28928931.280 9  18385790.908 8
  23009099.989    23009103.894    19620961.495 9 -18724134.071 7
  22066237.474    22066241.979    81688519.013 9-120602082.648 7
 90  2 24 10 28 59.0800000  0  4G 3G16G19G13
  20003820.187    20003822.174    18965670.950 8 -52353421.989 8
  20521441.093    20521443.659   -28975649.623 9  18349387.025 8
  23014795.714    23014802.027    19650900.616 9 -18700804.905 7
  22070267.771    22070271.729    81709697.605 9-120585579.869 8
 90  2 24 10 29 14.0800000  0  4G 3G16G19G13
  20002659.664    20002663.038    18959577.399 9 -52358170.213 8
  20512567.133    20512571.073   -29022280.293 9  18313051.460 9
  23020500.212    23020503.215    19680866.531 9 -18677454.862 8
  22074304.737    22074309.735    81730910.320 9-120569050.500 7
 90  2 24 10 29 29.0800000  0  4G 3G16G19G13
  20001508.284    20001510.755    18953528.595 9 -52362883.571 7
  20503711.093    20503713.712   -29068822.838 9  18276784.565 7
  23026207.106    23026210.181    19710858.964 9 -18654084.127 8
  22078347.573    22078353.101    81752157.504 9-120552494.261 8
 90  2 24 10 29 44.0800000  0  4G 3G16G19G13
  20000366.027    20000369.423    18947525.013 9 -52367561.687 8
  20494871.523    20494873.531   -29115276.973 9  18240586.538 9
  23031919.340    23031924.229    19740877.727 9 -18630692.880 7
  22082397.301    22082401.658    81773439.218 9-120535911.123 8
 90  2 24 10 29 59.0800000  0  4G 3G16G19G13
  19999232.734    19999235.441    18941566.214 8 -52372204.917 8
  20486048.141    20486051.293   -29161642.516 9  18204457.562 8
  23037636.316    23037640.237    19770922.215 9 -18607281.610 7
  22086454.029    22086457.371    81794755.328 9-120519301.188 7
 90  2 24 10 30 14.0800000  0  4G 3G16G19G13
  19998108.804    19998110.624    18935652.555 9 -52376812.958 8
  20477241.410    20477245.646   -29207919.457 9  18168397.637 9
  23043358.198    23043361.904    19800991.830 9 -18583850.726 7
  22090516.552    22090521.209    81816105.780 9-120502664.483 7
 90  2 24 10 30 29.0800000  0  4G 3G16G19G13
  19996991.404    19996993.689    18929783.864 9 -52381385.958 9
  20468451.259    20468455.490   -29254107.346 9  18132407.099 9
  23049085.726    23049089.330    19831086.109 9 -18560400.653 8
  22094585.866    22094589.772    81837490.712 8-120486000.902 8
 90  2 24 10 30 44.0800000  0  4G 3G16G19G13
  19995882.194    19995885.526    18923960.603 9 -52385923.564 8
  20459680.354    20459683.402   -29300205.695 9  18096486.320 9
  23054816.901    23054822.004    19861204.882 9 -18536931.485 8
  22098661.313    22098666.767    81858910.246 9-120469310.379 7
 90  2 24 10 30 59.0800000  0  4G 3G16G19G13
  19994783.248    19994786.802    18918182.931 9 -52390425.628 8
  20450925.065    20450928.294   -29346214.250 9  18060635.504 8
  23060552.900    23060556.815    19891347.732 9 -18513443.549 8
  22102743.596    22102748.530    81880364.480 9-120452592.796 6
 90  2 24 10 31 14.0800000  0  4G 3G16G19G13
  19993692.282    19993694.051    18912450.992 9 -52394892.083 8
  20442187.577    20442190.377   -29392132.570 9  18024855.029 8
  23066293.454    23066297.526    19921514.236 9 -18489937.184 8
  22106833.848    22106838.980    81901853.380 9-120435848.211 8
 90  2 24 10 31 29.0800000  0  4G 3G16G19G13
  19992610.016    19992612.155    18906764.664 9 -52399322.990 7
  20433466.258    20433469.258   -29437960.470 9  17989144.994 9
  23072038.116    23072042.225    19951704.298 9 -18466412.473 8
  22110930.068    22110934.671    81923377.217 9-120419076.403 7
 90  2 24 10 31 44.0800000  0  4G 3G16G19G13
  19991537.434    19991539.189    18901124.392 9 -52403718.005 8
  20424762.859    20424765.730   -29483697.628 9  17953505.661 8
  23077787.491    23077793.177    19981917.199 9 -18442869.956 7
  22115032.284    22115036.626    81944936.145 9-120402277.244 8
 90  2 24 10 31 59.0800000  0  4G 3G16G19G13
  19990472.924    19990475.845    18895530.037 9 -52408077.242 8
  20416076.659    20416080.079   -29529343.819 9  17917937.214 8
  23083540.936    23083545.477    20012152.652 9 -18419309.868 7
  22119141.483    22119146.173    81966530.047 9-120385450.837 7
 90  2 24 10 32 14.0800000  0  4G 3G16G19G13
  19989416.526    19989418.417    18889981.690 9 -52412400.630 8
  20407407.101    20407411.294   -29574898.846 9  17882439.810 8
  23089299.016    23089302.895    20042410.198 8 -18395732.566 9
  22123257.390    22123262.834    81988158.801 9-120368597.285 7
 90  2 24 10 32 29.0800000  0  4G 3G16G19G13
  19988369.249    19988371.581    18884479.639 9 -52416687.932 8
  20398755.955    20398760.481   -29620362.254 9  17847013.787 8
  23095061.009    23095065.035    20072689.482 9 -18372138.346 8
  22127379.738    22127384.683    82009822.744 9-120351716.304 8
 90  2 24 10 32 44.0800000  0  4G 3G16G19G13
  19987331.403    19987333.231    18879024.301 8 -52420938.854 8
  20390122.828    20390125.637   -29665733.417 9  17811659.655 9
  23100827.879    23100831.381    20102990.642 9 -18348527.065 8
  22131508.916    22131512.715    82031522.263 9-120334807.604 8
